GEFSNE_500_meanwind_000.txt.gz
Wind_Speed
42 40 34 29 23 22 25 28 30 34 35 32 31 32 33 29 26 26 28 28 27 27 27 26 26 26 26 27 28 29 30 33 35 35 37 37 38 39
26 26 28 25 28 26 25 26 29 31 36 37 30 25 22 22 25 25 26 27 28 28 28 27 27 26 27 27 28 30 31 34 32 33 38 41 44 43
20 21 22 22 27 30 30 32 34 32 31 24 15 15 18 21 25 28 28 27 28 29 30 31 31 31 32 32 33 33 33 34 34 34 38 40 45 46
23 24 25 27 31 32 30 28 26 23 16 11 12 16 19 20 21 24 25 26 27 28 30 30 31 32 32 33 35 35 36 38 39 38 38 41 45 47
19 16 16 19 27 26 24 20 17 13 11 16 17 18 21 24 25 25 24 24 25 28 30 30 31 32 33 35 36 38 39 41 41 42 42 42 45 48
22 17 15 19 18 18 17 15 14 16 19 21 22 23 24 25 25 25 26 26 27 29 31 32 34 35 36 37 38 37 39 41 43 45 46 44 44 44
18 15 14 15 12 11 14 15 16 18 21 23 23 23 23 24 25 26 28 29 31 33 35 36 38 38 38 38 38 38 39 41 42 45 46 45 43 43
15 14 14 14 12 12 13 15 16 17 18 20 22 21 22 24 26 28 29 30 32 34 36 38 41 42 43 44 44 44 43 42 41 40 40 40 41 43
16 16 15 13 14 13 13 14 15 15 15 17 19 20 21 23 24 24 25 27 28 30 31 34 36 38 39 42 43 45 46 46 45 42 39 38 39 39
18 15 15 15 16 15 14 15 14 12 12 13 15 15 15 17 19 24 28 31 34 36 37 38 41 42 44 44 43 42 44 45 45 45 43 38 36 37
17 17 15 14 13 13 13 12 11 11 10 9 11 14 17 20 23 26 30 33 35 37 39 41 41 42 43 43 42 42 42 42 40 39 37 34 34 34
12 11 10 10 10 10 10 10 10 9 9 11 13 17 20 24 27 31 34 35 36 36 37 39 37 34 35 36 34 33 35 35 35 34 31 29 29 31
11 12 13 11 10 10 10 11 11 11 10 10 13 18 23 26 28 29 30 31 31 31 32 32 30 27 25 27 28 28 28 28 28 28 26 24 18 17
11 14 15 13 11 10 11 12 11 10 9 12 16 20 23 24 26 29 30 29 27 27 27 27 26 25 25 25 27 28 29 29 27 24 25 24 23 22
11 12 12 14 13 11 11 11 10 9 10 12 15 20 24 26 27 26 26 25 22 21 21 24 27 27 26 26 27 27 28 29 28 25 26 29 30 27
11 12 13 14 13 11 10 10 9 9 9 11 15 19 23 26 25 23 23 21 19 18 19 20 22 22 21 20 21 22 22 24 26 26 25 21 21 23
15 13 11 11 11 10 9 9 10 9 10 12 13 16 21 24 24 23 22 21 20 20 21 21 20 22 22 21 19 17 17 17 20 25 24 21 19 23
15 13 13 14 13 11 9 10 11 10 12 14 12 13 18 22 23 24 25 25 25 25 26 25 24 22 21 21 20 19 17 16 16 19 25 24 22 22
16 15 14 14 12 11 11 11 11 11 13 15 11 11 15 19 20 23 26 26 26 27 28 27 25 24 23 20 19 20 20 18 16 16 20 26 28 31
13 12 12 11 11 11 12 11 11 12 13 12 9 8 12 16 18 22 25 28 30 31 32 30 26 23 22 21 19 18 19 20 19 17 16 20 27 36
12 11 11 11 11 12 13 12 13 13 12 12 9 5 8 12 17 22 26 28 30 34 36 33 28 24 21 19 17 16 16 16 16 16 16 16 19 28
13 13 13 13 13 13 14 14 14 15 15 14 12 8 6 10 16 24 28 28 28 31 35 36 31 25 22 20 20 19 19 18 17 18 16 16 18 21
16 15 14 14 14 13 14 16 17 16 15 16 17 15 14 14 19 24 24 25 28 31 33 35 33 28 24 22 21 21 20 18 17 17 16 17 19 24

GEFSNE_500_meanwind_006.txt.gz
Wind_Speed
39 39 39 38 37 36 35 32 29 26 25 26 28 27 26 28 28 28 28 31 33 35 35 35 34 34 35 34 35 35 35 35 34 34 34 34 34 35
38 39 38 36 35 34 32 29 26 24 23 23 23 23 24 28 29 27 27 30 32 35 35 33 32 33 34 35 36 37 37 38 39 39 38 38 38 38
35 34 33 32 32 31 28 27 26 25 24 22 22 22 24 26 26 26 26 25 24 24 25 25 27 30 32 34 36 37 39 40 41 42 42 41 41 42
28 27 25 25 25 26 27 27 27 26 24 23 22 23 24 25 24 22 21 20 20 21 22 24 27 30 32 34 36 38 40 40 41 42 43 44 44 44
23 22 23 25 25 26 27 28 27 25 24 23 22 21 21 20 18 18 18 18 19 20 21 23 25 27 30 33 35 37 38 40 42 44 45 46 46 46
21 22 24 26 27 28 28 28 26 23 22 21 20 18 16 16 16 16 18 19 20 21 22 23 24 26 28 31 34 36 38 40 43 45 46 47 48 49
20 22 24 25 25 26 25 25 24 21 19 18 18 17 16 16 16 16 17 17 19 21 23 25 27 29 31 33 35 36 38 40 42 44 46 47 48 49
21 21 23 23 22 19 17 17 17 17 18 18 17 17 16 15 14 14 15 17 19 21 23 25 27 29 31 33 36 38 41 44 46 49 51 52 54 55
21 22 20 19 18 17 16 17 17 18 17 16 15 13 12 11 12 13 15 16 18 20 22 24 26 28 30 33 36 39 41 44 47 49 51 53 54 56
19 19 18 17 16 16 17 17 17 16 14 12 11 10 9 9 10 11 13 15 17 20 22 25 27 29 31 35 38 41 44 47 50 53 55 56 57 56
17 17 17 17 17 17 16 16 15 13 11 11 10 9 8 8 9 11 13 15 17 20 22 25 26 28 30 32 35 38 41 44 46 49 53 56 58 59
17 17 17 18 17 17 17 16 14 13 12 11 11 9 8 8 9 10 11 13 15 17 19 20 21 22 24 27 29 31 33 35 37 38 41 44 49 53
15 15 16 18 18 17 16 15 15 14 14 13 12 10 8 7 7 9 11 14 15 16 17 18 19 21 24 26 29 30 32 33 34 35 36 38 40 43
14 13 15 17 18 16 15 14 15 15 14 13 12 10 8 5 6 9 11 12 13 15 16 19 22 24 26 29 31 33 34 34 34 34 34 35 37 38
15 14 15 17 16 14 14 14 15 15 14 13 11 9 7 6 8 9 9 11 13 15 18 21 23 25 27 29 32 34 35 35 33 32 31 32 33 33
17 16 16 16 15 13 14 14 14 15 14 12 10 9 8 8 9 8 8 9 11 14 17 20 22 24 26 29 31 32 32 31 30 28 28 29 30 29
19 16 14 14 14 15 15 13 13 12 12 11 10 10 9 9 9 9 7 7 10 14 17 20 24 27 30 32 32 30 27 24 23 23 24 26 27 26
19 16 14 13 13 13 12 12 12 13 13 13 12 12 10 9 9 8 7 8 11 13 16 21 25 28 30 31 31 29 25 22 20 19 20 22 25 25
19 16 15 14 13 12 11 11 13 14 15 14 13 12 9 8 8 7 7 9 11 13 17 21 25 27 29 30 31 30 27 25 23 21 20 20 21 22
18 17 16 16 14 13 12 12 14 15 15 15 14 12 10 9 9 9 8 10 12 14 18 22 25 26 27 28 29 29 28 26 25 24 24 22 20 19
17 17 17 16 15 14 14 14 14 15 16 15 15 14 13 13 13 13 14 15 16 17 20 22 24 26 27 27 27 28 29 28 27 25 24 23 22 21
14 14 14 14 14 13 13 14 14 15 17 17 17 17 17 18 18 18 19 20 20 21 21 22 23 25 26 27 27 27 28 29 30 29 27 24 22 21
13 12 12 12 13 13 13 14 16 17 18 19 19 19 20 20 21 22 23 23 23 22 21 22 23 24 25 27 28 28 28 29 30 31 31 29 25 22

GEFSNE_500_meanwind_012.txt.gz
Wind_Speed
28 28 30 32 35 37 36 36 35 35 35 34 35 34 34 34 34 34 34 32 31 30 29 29 31 34 36 38 41 44 45 43 42 40 38 38 37 36
27 26 27 29 32 34 35 36 36 36 36 36 35 34 34 33 33 32 32 32 31 29 27 27 26 28 33 37 40 42 43 43 41 40 40 40 39 37
27 26 26 28 30 32 34 35 36 37 36 36 35 34 34 33 31 30 30 30 29 28 27 26 26 26 30 34 37 40 43 44 44 43 41 42 42 42
28 27 26 26 28 30 32 33 34 34 35 35 35 34 32 30 29 27 28 28 27 28 28 27 26 27 29 32 36 39 43 46 47 46 45 45 45 44
29 27 26 24 25 26 28 28 29 31 32 32 32 32 31 29 28 27 26 26 27 27 27 25 25 24 24 25 27 30 34 37 40 42 42 42 44 44
28 27 24 22 21 21 23 23 24 25 26 28 29 30 29 27 26 26 26 25 23 22 21 20 19 18 18 18 19 21 23 25 28 31 34 36 39 41
27 25 22 19 18 18 19 20 23 25 26 28 29 29 29 27 25 25 23 20 18 17 16 16 16 16 17 18 19 21 22 24 26 28 30 33 35 38
26 23 20 19 17 18 19 20 23 27 29 31 32 30 29 25 24 22 20 18 16 16 15 15 16 17 19 20 22 23 24 26 28 30 31 33 35 37
26 23 20 19 18 18 19 21 23 25 29 32 32 29 26 23 21 19 18 17 16 15 15 16 17 18 19 20 21 23 24 26 28 30 32 34 37 39
27 24 21 20 19 19 20 21 23 25 27 29 28 24 21 19 18 18 17 16 15 15 15 15 16 17 18 19 21 22 24 26 28 31 33 36 38 41
29 25 23 21 20 20 20 21 22 23 24 23 21 20 19 18 17 16 15 14 13 13 13 14 15 15 16 18 20 21 23 25 27 30 33 36 39 42
30 27 24 22 21 20 20 21 21 21 21 20 19 18 18 17 16 14 13 12 11 11 11 12 12 13 14 15 17 19 21 23 26 29 33 36 39 43
31 29 25 23 21 21 21 22 22 21 21 20 19 19 18 16 15 13 11 10 10 10 10 10 10 11 11 13 15 18 20 23 26 29 32 35 38 41
31 28 25 23 22 22 23 23 23 23 22 21 20 18 17 16 14 13 11 10 9 9 9 9 10 10 11 13 15 17 20 23 26 28 30 32 34 35
31 28 24 22 22 24 24 24 24 23 22 21 19 18 16 15 14 13 12 11 10 10 11 11 11 11 12 13 15 17 19 22 25 28 30 31 32 33
30 27 24 22 22 24 25 25 24 24 22 20 19 17 16 14 13 13 12 12 12 13 13 13 13 12 12 13 15 17 19 22 25 28 30 31 32 33
28 26 24 22 22 23 22 22 22 22 21 19 17 16 15 14 14 13 13 14 14 15 15 15 14 13 12 13 15 16 19 21 24 26 28 30 32 32
28 27 25 24 23 23 22 21 21 20 19 18 17 16 15 15 15 15 15 16 17 18 18 17 16 14 13 13 15 17 19 21 24 26 28 31 32 34
28 28 27 26 25 24 22 21 20 20 19 18 18 17 17 16 16 17 18 19 20 20 19 18 17 16 15 16 17 18 20 22 24 27 29 32 34 36
30 30 29 28 27 25 23 22 21 20 20 19 19 18 18 17 18 19 20 21 22 21 20 19 19 19 19 19 18 19 20 22 24 26 30 33 35 38
31 31 29 28 27 25 24 23 21 20 20 20 19 18 18 19 20 21 22 24 24 23 23 22 22 23 23 21 20 19 20 22 24 26 29 32 35 38
33 31 29 27 26 25 23 21 20 20 20 20 19 19 19 19 20 22 24 25 26 25 25 25 25 24 23 22 21 21 22 23 25 27 29 33 36 39
32 30 28 26 25 23 22 20 19 19 19 19 19 19 19 20 21 22 24 25 25 25 25 25 24 23 23 23 23 23 24 26 28 31 33 34 37 40

GEFSNE_500_meanwind_018.txt.gz
Wind_Speed
30 29 27 26 27 26 25 24 23 23 26 28 28 28 28 28 26 25 25 26 27 28 28 29 29 29 29 28 28 28 29 30 31 33 34 36 40 44
31 30 29 27 26 26 25 24 23 22 24 26 28 29 29 28 27 27 27 27 27 28 28 29 29 28 27 26 25 25 26 27 28 30 32 35 39 42
33 32 30 28 27 26 24 23 22 22 23 25 27 28 28 29 28 28 29 28 28 28 28 28 28 27 27 25 24 23 23 23 24 25 28 33 37 41
35 33 31 29 28 26 24 23 22 21 21 23 25 27 28 29 29 29 29 29 29 28 27 26 26 25 25 24 23 22 22 23 23 24 27 30 34 38
37 35 32 29 28 26 24 22 21 20 19 21 24 26 28 29 29 30 30 29 29 28 26 25 24 23 23 22 22 22 23 24 24 25 26 28 31 35
39 36 33 30 28 26 24 22 20 19 18 20 22 24 26 27 28 29 28 28 27 26 24 23 22 20 20 20 20 21 20 20 20 21 22 24 26 28
42 37 33 30 28 26 24 21 19 18 18 19 21 23 24 25 25 26 26 25 25 24 22 20 19 19 18 17 17 16 16 15 15 15 15 16 18 20
43 38 34 31 28 26 23 21 19 18 18 19 21 22 22 23 23 24 24 26 26 24 21 19 18 18 17 15 14 14 13 13 13 13 14 15 16 17
45 40 36 32 29 26 24 21 19 18 17 18 18 19 20 21 23 23 24 26 25 22 20 17 16 16 14 13 13 13 13 14 14 15 15 16 17 18
45 42 37 34 31 27 24 21 20 18 18 18 17 18 20 22 24 25 25 25 23 20 18 15 14 14 13 13 13 12 12 12 13 13 14 15 16 17
43 40 37 35 32 28 25 22 20 19 18 18 18 19 20 22 25 26 25 24 21 18 16 15 14 13 12 12 11 11 10 10 10 11 12 13 15 17
45 41 38 36 34 31 27 25 22 20 19 19 19 20 21 22 24 24 23 21 18 16 15 14 13 12 11 10 9 9 9 9 9 10 12 13 15 17
44 42 40 38 36 33 30 27 24 21 20 20 19 19 20 20 21 21 21 19 18 16 14 13 12 12 10 9 8 7 7 8 9 11 13 15 17 19
46 44 42 39 37 35 32 29 26 23 21 20 19 19 19 18 18 18 18 16 15 14 13 13 12 11 10 8 8 8 8 9 11 13 14 16 18 19
47 45 43 41 39 36 34 31 27 24 22 20 19 19 19 19 19 18 18 17 16 15 15 14 12 11 10 9 9 10 11 13 14 15 17 18 19 20
46 45 44 42 40 37 35 31 27 24 22 21 20 20 20 20 19 18 18 17 17 16 15 14 12 11 11 11 12 13 15 16 18 19 20 21 22 23
45 45 43 40 37 35 33 29 26 24 22 21 21 21 21 20 20 19 19 18 17 16 15 14 13 13 13 14 16 17 18 20 21 22 23 23 24 25
43 45 42 38 36 33 30 28 26 24 23 23 22 23 22 22 21 20 19 19 17 16 14 13 14 15 16 17 19 20 21 21 22 23 25 26 27 28
41 42 40 37 34 31 28 27 25 25 24 24 23 23 23 22 21 20 19 18 16 15 14 15 15 16 18 20 20 22 22 23 25 26 27 29 30 31
38 39 37 35 32 29 27 26 25 25 25 24 24 24 23 22 21 20 19 17 16 15 15 16 17 18 20 22 23 24 25 26 28 29 30 31 32 33
37 36 35 32 30 27 26 25 25 26 25 25 25 24 22 21 20 19 18 16 16 15 16 17 19 21 23 24 25 27 29 30 30 31 32 32 33 33
34 33 32 30 28 27 26 26 27 26 25 25 24 22 21 20 19 18 17 16 16 16 17 19 21 23 25 26 27 28 30 31 32 32 32 33 32 32
31 31 30 29 28 27 28 27 27 26 24 23 21 20 20 19 18 17 16 16 16 18 19 21 23 25 26 27 28 29 30 29 29 30 30 30 31 32

GEFSNE_500_meanwind_024.txt.gz
Wind_Speed
35 34 33 31 30 28 26 24 22 22 24 24 21 21 22 24 26 26 25 24 22 21 19 20 21 22 23 25 26 27 27 27 27 28 29 30 31 31
39 37 36 34 32 30 29 26 24 23 23 24 22 21 22 24 26 25 25 24 23 22 22 22 22 23 24 25 26 26 26 26 27 27 27 29 29 29
43 41 38 36 34 32 30 28 26 24 23 23 22 22 22 23 26 27 26 25 25 24 24 24 24 24 25 25 25 25 25 25 25 25 25 26 27 28
47 44 41 39 36 34 32 30 29 26 24 23 23 23 22 23 25 26 27 26 26 26 25 25 25 25 25 24 24 24 24 25 25 25 25 26 26 26
51 48 45 42 39 36 34 32 30 28 25 24 24 23 22 22 24 26 27 27 27 26 26 26 25 25 25 24 24 24 24 24 24 24 24 24 26 27
54 51 48 45 42 39 36 34 32 30 27 25 24 23 21 20 22 24 25 26 26 26 25 25 25 25 24 24 23 23 23 23 23 23 24 24 25 26
55 52 50 47 45 42 38 36 33 31 28 26 24 22 20 18 19 21 22 23 24 24 24 24 24 24 23 22 22 21 21 22 22 23 23 23 23 23
56 53 51 49 46 44 40 37 35 32 29 26 25 23 20 18 18 18 19 21 21 22 22 23 22 22 21 21 20 20 20 20 20 20 20 19 19 19
58 55 52 49 46 44 42 39 36 33 31 27 25 23 20 19 18 18 18 18 19 19 20 20 20 20 20 21 21 20 19 18 17 17 16 16 16 16
60 57 53 50 48 45 43 40 37 35 32 28 25 22 21 20 19 19 18 18 19 19 19 19 19 20 20 20 20 19 19 18 17 17 16 16 15 14
61 58 55 52 49 45 43 41 38 35 33 29 25 23 21 20 19 19 18 18 18 19 18 19 19 19 20 21 20 19 18 18 17 17 16 15 14 14
56 58 56 53 50 47 43 41 38 36 33 29 26 23 22 21 20 20 18 18 18 18 18 18 19 19 19 20 20 19 18 17 16 16 15 14 14 14
47 53 53 51 49 47 44 41 39 36 34 30 26 24 23 22 21 19 18 18 18 18 17 17 18 19 20 20 19 18 17 16 16 15 15 14 14 14
42 48 51 49 48 46 45 42 39 36 34 30 27 25 24 22 21 20 20 19 19 18 17 17 19 19 20 20 19 18 17 17 16 15 15 14 14 14
38 46 49 49 47 45 45 43 40 36 33 30 27 26 24 22 21 21 20 20 19 19 18 18 19 19 20 19 18 18 18 17 16 15 15 15 15 16
36 47 49 48 47 46 44 43 40 37 32 30 28 26 23 21 21 21 21 20 20 19 19 19 19 19 19 19 18 18 18 17 16 16 16 17 18 20
36 49 50 48 48 46 45 43 40 36 32 30 27 25 22 21 21 21 21 21 20 20 20 20 21 20 19 19 19 18 18 17 18 18 20 21 22 24
36 48 51 49 47 45 44 42 39 35 33 30 28 25 23 22 22 22 22 22 21 21 22 22 22 21 21 20 20 19 19 19 20 21 23 24 26 28
35 45 49 48 47 46 43 40 37 35 32 30 28 25 24 24 23 23 23 23 23 23 23 23 23 22 22 21 20 20 21 22 23 24 25 27 29 31
32 41 47 48 48 45 42 40 37 35 32 29 27 26 25 25 24 24 24 24 24 24 24 24 24 23 23 22 22 22 23 24 25 26 28 29 31 33
28 37 45 46 45 44 41 38 36 34 31 29 27 26 26 25 25 25 25 25 25 25 24 24 24 23 23 22 22 22 23 24 26 28 29 31 32 33
26 34 41 41 42 40 38 36 34 33 30 28 27 27 26 26 26 26 26 26 25 25 24 24 23 23 23 22 22 23 24 26 27 29 30 30 31 31
28 33 37 38 38 37 36 33 32 30 29 28 27 27 26 27 27 26 26 26 25 25 24 24 23 23 23 23 24 25 26 27 28 28 28 29 30 30

GEFSNE_500_meanwind_030.txt.gz
Wind_Speed
45 45 44 42 39 37 36 34 32 31 29 27 25 24 22 21 21 20 20 20 21 22 24 26 26 27 26 27 27 30 32 33 34 34 33 33 33 33
50 49 48 46 45 41 39 37 35 33 31 29 27 26 24 23 22 21 20 20 21 22 23 24 24 25 25 24 25 25 26 27 28 30 30 31 32 32
54 53 52 51 49 46 43 40 37 35 32 31 29 27 26 24 22 21 20 19 20 21 22 23 24 24 24 23 23 24 24 25 26 27 28 29 30 31
60 58 56 54 52 50 47 44 41 38 34 32 30 29 27 25 23 22 21 20 20 22 23 24 24 25 24 24 23 22 22 23 23 24 26 28 29 30
66 63 60 58 55 53 51 48 44 40 37 34 32 30 28 26 24 23 22 21 20 21 23 24 25 26 25 24 24 23 23 23 24 25 26 27 27 28
70 67 64 63 59 56 54 50 47 43 40 36 33 31 29 28 25 24 23 21 21 22 23 25 25 26 26 25 25 25 24 24 25 25 26 26 26 27
74 71 68 65 62 59 56 54 50 46 42 38 35 32 30 28 26 24 23 21 21 21 23 24 26 26 26 26 26 26 26 26 26 26 26 26 26 26
76 74 70 67 63 59 57 55 52 48 44 41 37 34 31 29 27 25 23 22 21 21 22 24 26 27 27 27 27 27 26 26 25 25 25 25 25 25
73 75 74 70 67 64 59 56 53 51 47 43 39 36 33 30 28 25 23 21 20 21 22 23 24 26 26 27 26 26 26 25 24 23 23 23 23 24
58 66 70 72 69 66 62 58 55 52 48 45 41 38 35 32 29 26 23 21 20 21 21 22 23 24 25 24 25 25 25 24 23 23 22 21 21 21
42 50 58 64 66 66 63 59 55 51 48 45 43 40 37 34 30 26 23 21 21 21 21 22 22 23 24 24 24 24 23 23 23 23 21 21 20 20
34 39 46 53 59 62 62 59 57 53 49 46 44 41 38 34 31 27 24 22 22 21 21 21 22 22 22 22 22 23 23 22 22 21 21 21 20 20
31 32 36 43 50 55 58 58 55 53 50 46 44 42 39 35 31 27 24 23 23 23 22 21 21 22 22 22 22 22 22 21 21 22 21 21 20 19
30 30 31 35 42 49 54 55 54 53 50 47 44 42 38 34 31 28 26 26 25 25 23 22 21 21 21 22 21 21 21 21 21 21 20 20 19 18
29 28 28 31 37 45 51 53 53 52 50 47 44 41 37 35 32 30 28 27 26 25 24 23 22 21 21 20 19 19 20 19 19 19 19 18 17 17
29 27 27 28 34 43 49 52 53 52 49 47 44 41 38 36 33 31 29 27 27 25 24 23 22 22 20 19 19 19 19 19 19 19 18 18 17 17
30 27 26 26 32 41 48 50 52 51 49 46 44 41 39 36 34 32 31 28 27 26 24 24 23 22 20 19 19 19 19 19 19 19 19 19 18 18
29 26 25 26 32 41 46 48 49 49 47 45 42 40 38 36 34 32 30 28 26 26 24 23 22 21 21 20 20 20 19 19 20 20 20 19 19 19
28 26 25 27 34 41 46 49 50 47 45 44 41 40 38 36 34 32 30 28 27 26 25 23 22 22 21 21 21 21 21 21 21 21 20 20 21 21
26 25 26 28 33 40 46 48 48 46 44 43 41 40 39 36 35 33 31 29 27 26 25 24 23 22 22 22 21 22 22 22 22 22 21 22 23 24
23 23 25 27 32 40 47 48 47 45 44 42 40 39 38 36 34 32 30 29 28 27 26 25 24 23 23 23 23 23 24 24 23 23 23 24 25 27
20 21 22 26 31 39 45 47 46 45 43 41 39 37 36 35 33 32 30 29 28 27 26 25 24 24 24 25 25 25 25 25 25 25 26 27 28 30
17 18 21 26 31 39 42 44 45 44 41 39 37 36 34 33 31 30 30 29 28 27 25 25 25 25 25 25 25 25 25 25 26 27 28 30 31 33

GEFSNE_500_meanwind_036.txt.gz
Wind_Speed
48 47 46 45 45 44 43 42 40 39 37 35 32 29 26 23 21 20 18 17 17 18 18 20 22 23 25 27 28 29 31 31 32 32 33 35 37 39
55 52 50 50 48 47 47 45 44 42 40 38 36 33 30 27 24 22 20 18 18 18 19 19 21 22 24 25 26 28 29 30 31 31 31 32 34 35
61 59 55 53 52 51 50 49 47 46 43 41 39 36 33 30 27 24 22 20 19 19 19 20 20 21 23 24 25 26 27 28 28 28 29 30 31 33
68 66 63 59 56 54 54 52 50 49 47 44 42 39 36 33 30 27 25 22 21 20 20 21 21 22 23 24 25 25 25 26 27 27 26 27 29 30
72 72 69 66 62 58 56 55 53 51 50 48 45 42 38 35 32 30 27 25 23 22 21 22 22 22 23 23 24 25 25 25 25 25 25 25 25 25
73 74 75 71 67 64 59 57 56 54 52 50 48 45 41 38 35 32 30 27 25 24 22 22 23 23 23 23 24 24 23 23 23 22 22 22 22 23
73 75 77 77 73 68 65 61 59 57 54 52 50 48 45 41 38 35 32 30 27 25 24 23 23 23 23 23 24 24 24 23 23 23 23 22 22 22
69 73 77 78 78 73 69 66 62 59 55 54 52 50 47 45 42 38 35 32 29 27 25 24 23 23 22 23 23 24 24 24 24 23 23 22 22 22
60 65 72 76 79 78 74 69 67 62 59 56 53 52 50 47 45 41 38 35 31 29 26 24 23 23 23 23 23 24 24 24 24 23 23 22 22 21
51 55 61 69 74 77 76 73 69 64 61 59 55 52 51 49 47 45 41 37 33 30 27 24 24 23 23 23 23 23 24 23 23 23 23 22 21 21
44 46 50 56 65 71 73 73 72 68 63 59 59 56 54 51 49 46 42 38 34 31 28 25 24 24 23 23 23 22 22 22 22 23 22 22 21 21
40 40 42 47 54 62 68 71 72 69 66 62 59 58 55 53 49 46 43 39 35 31 28 26 25 24 23 22 22 21 21 22 22 22 22 22 21 21
36 36 36 40 46 52 59 64 67 68 68 65 59 55 54 53 50 46 43 39 36 32 29 28 26 25 23 22 21 21 20 20 20 21 21 21 21 21
33 34 34 35 38 44 50 56 63 65 66 65 61 55 52 51 49 46 43 40 37 34 31 29 28 25 24 23 22 21 21 20 20 20 21 21 21 21
31 32 32 32 33 37 43 49 54 60 63 63 61 56 51 47 45 45 44 41 38 35 32 30 28 26 24 23 21 21 21 20 20 21 21 21 21 21
29 29 29 29 30 31 36 42 47 52 56 58 58 56 53 50 46 44 43 41 39 36 34 31 29 27 25 23 22 21 21 21 21 22 22 22 22 22
27 27 27 27 28 29 31 36 42 47 50 52 54 54 51 49 46 44 42 41 40 37 35 32 30 28 27 25 24 23 22 22 22 23 23 22 22 22
26 25 25 25 26 28 29 32 37 42 45 48 52 51 49 48 47 45 42 40 40 38 35 33 32 30 28 26 26 24 23 23 22 22 22 22 21 21
25 25 24 23 24 26 27 30 34 39 42 48 51 50 49 49 47 45 44 41 40 38 36 34 33 30 29 28 26 25 24 23 23 22 22 22 22 22
24 24 24 24 24 24 26 28 32 38 42 48 51 50 49 48 48 46 44 41 39 38 36 35 33 32 30 28 27 26 25 24 24 23 23 23 23 24
22 23 23 23 23 23 25 27 31 37 42 47 50 50 48 49 48 46 44 42 40 38 36 35 34 32 30 28 27 26 25 25 24 24 24 25 25 26
19 20 21 21 22 22 23 26 32 36 42 47 50 48 47 48 46 45 43 41 39 38 36 34 32 30 29 28 27 27 26 25 25 25 25 26 26 27
16 17 17 19 20 21 24 28 32 36 42 47 48 47 48 47 44 43 41 39 38 36 34 32 31 29 28 28 27 27 26 26 26 26 26 27 28 28

GEFSNE_500_meanwind_042.txt.gz
Wind_Speed
41 43 44 44 41 39 38 38 37 37 37 38 38 36 34 32 31 28 26 23 20 17 15 13 11 10 10 10 11 12 14 16 18 19 21 23 25 27
45 44 45 46 46 44 41 39 40 40 40 40 39 38 37 36 34 31 28 25 22 19 17 14 12 11 10 10 10 11 13 15 16 18 20 22 24 26
49 49 49 49 50 48 45 43 42 42 42 42 41 40 40 38 36 34 31 28 25 22 19 16 13 11 10 10 10 11 12 14 15 17 19 21 23 25
53 53 52 52 52 52 51 48 45 44 45 44 42 42 42 41 40 38 34 32 28 25 21 17 15 12 11 10 11 12 13 14 16 16 18 19 20 22
57 56 56 55 55 55 54 53 51 48 46 46 44 44 44 43 42 41 38 35 31 28 24 20 17 14 13 12 12 13 14 15 16 16 17 18 19 20
60 59 59 58 58 57 57 56 55 53 50 47 46 47 45 45 44 43 41 38 35 31 28 24 20 17 15 14 14 14 15 15 16 16 17 18 18 19
59 59 59 60 61 60 59 59 58 56 54 50 46 47 48 46 45 45 43 41 38 35 31 27 23 20 17 15 15 15 15 15 16 16 17 17 17 18
55 57 58 60 62 62 61 61 60 59 56 55 51 49 48 47 47 47 45 44 41 38 34 30 26 23 20 17 16 16 15 16 17 17 17 17 17 17
50 52 55 57 60 62 63 62 61 60 59 57 55 51 49 50 48 48 47 45 44 41 38 33 29 25 22 19 18 17 17 16 17 18 18 17 17 18
46 48 50 53 56 59 61 62 62 61 60 58 55 53 51 50 49 49 49 48 46 43 40 35 31 27 25 22 19 18 18 18 18 18 17 17 18 18
41 44 45 47 50 53 57 60 61 62 60 59 58 56 53 50 50 49 49 48 46 43 40 37 33 30 27 24 21 20 19 18 18 17 17 17 17 18
35 39 40 42 45 48 51 55 58 60 60 60 59 58 56 52 50 50 48 48 47 44 41 38 36 32 29 26 23 22 20 19 18 17 16 17 17 17
30 33 37 40 42 43 46 49 52 56 58 58 58 58 57 55 52 49 48 46 46 44 43 41 38 34 31 28 25 23 22 20 18 17 16 16 16 16
26 29 33 36 39 40 42 44 47 50 54 56 56 56 56 55 53 51 48 46 45 45 44 42 40 36 33 30 27 25 22 20 19 18 17 17 17 17
24 26 29 32 34 36 38 41 43 45 48 52 53 54 54 55 54 52 50 47 44 45 44 42 40 38 35 31 28 26 23 21 19 18 18 17 17 17
21 23 25 27 28 30 34 36 38 40 43 46 50 52 53 54 54 53 50 48 46 43 43 43 41 38 36 33 30 26 24 22 21 20 19 18 17 17
19 20 22 23 24 25 27 30 33 36 39 42 46 48 51 53 52 51 50 47 45 44 42 41 41 39 37 34 30 27 25 23 22 21 20 19 18 18
18 19 20 21 22 23 24 26 29 32 36 39 42 44 48 50 51 49 48 46 44 44 42 41 41 39 36 33 30 28 26 24 23 22 20 20 20 19
16 17 19 20 21 22 23 24 26 29 33 37 40 43 45 48 49 49 47 46 44 43 43 42 40 38 36 32 30 29 27 25 24 23 22 21 21 21
15 16 18 19 20 21 22 23 23 25 30 35 40 43 44 45 47 48 47 44 43 43 42 41 39 37 35 33 31 30 28 26 24 24 23 22 21 21
13 14 15 17 18 19 20 21 22 24 27 33 38 42 45 46 46 47 46 43 42 41 39 38 37 36 35 34 32 30 28 27 26 25 24 23 22 21
11 12 13 15 16 17 18 19 21 23 26 31 36 40 43 46 47 46 46 44 42 41 39 36 36 36 35 32 31 30 29 28 28 27 26 25 24 23
10 12 13 14 15 16 18 19 21 22 25 29 33 38 40 43 44 45 44 43 43 42 41 38 36 35 34 32 31 30 29 28 28 27 26 25 25 25

GEFSNE_500_meanwind_048.txt.gz
Wind_Speed
34 34 34 33 33 33 35 35 35 36 36 36 36 37 38 39 39 39 38 36 35 34 32 30 28 26 25 23 22 21 21 21 22 22 23 23 24 25
37 37 37 37 36 36 35 36 37 37 38 39 38 39 41 41 42 41 40 38 37 36 34 32 30 27 25 24 22 20 20 20 20 21 21 22 23 23
40 40 40 41 40 40 39 38 38 39 38 39 40 40 41 43 44 44 42 41 39 37 36 33 30 28 26 24 22 21 20 19 19 19 19 20 21 22
44 44 44 44 44 44 44 42 41 41 41 40 40 41 41 44 46 46 45 43 42 40 38 35 32 29 27 24 23 21 19 18 17 17 18 18 19 19
46 47 47 48 48 47 47 47 45 44 44 43 41 43 43 45 46 48 47 46 45 42 40 37 33 31 28 25 23 21 19 18 17 17 17 17 18 18
48 48 49 50 51 51 50 50 50 48 47 48 46 45 45 46 47 49 49 48 47 45 43 39 35 32 30 27 25 22 20 18 17 17 16 17 17 18
51 51 51 52 53 55 55 54 53 52 50 49 50 48 48 48 48 49 50 50 50 48 45 42 38 35 32 29 26 24 21 19 17 17 17 17 17 17
50 52 53 53 54 56 58 58 57 56 55 53 53 51 50 50 49 50 51 52 51 50 48 45 41 38 35 31 28 25 22 20 18 17 17 17 17 17
46 48 49 51 52 56 59 61 61 60 58 56 55 54 53 52 51 51 52 53 53 53 51 48 45 41 38 34 30 27 24 21 19 18 18 17 17 17
42 44 45 47 49 52 57 61 63 63 62 60 58 57 56 54 54 53 53 55 56 56 54 51 48 45 41 37 33 30 26 23 21 20 19 18 17 17
38 40 42 44 46 50 54 58 62 64 65 64 61 60 59 57 56 55 55 55 57 56 55 53 50 48 44 41 37 33 29 26 23 21 20 19 18 17
33 35 37 40 43 47 51 55 59 63 66 66 65 63 62 60 59 57 55 55 56 57 55 54 53 51 47 44 40 36 32 29 26 23 21 20 19 18
28 29 32 35 39 44 48 52 56 61 65 67 67 65 63 61 60 58 56 54 54 55 54 54 55 53 50 46 43 39 35 31 28 25 23 22 20 19
21 22 25 29 34 39 44 48 51 56 61 64 66 66 64 62 60 59 58 54 54 55 56 55 56 55 53 49 46 42 38 34 30 28 25 24 22 20
14 16 20 25 30 34 40 44 47 51 55 59 62 64 64 62 60 59 60 56 54 54 56 56 55 56 55 51 48 44 40 36 33 30 27 25 23 22
7 10 14 19 25 30 36 39 41 46 51 55 58 61 62 62 61 58 57 57 55 53 54 55 55 55 55 53 49 46 42 38 34 31 29 26 25 23
3 6 10 16 22 27 31 35 38 41 45 49 53 56 59 60 60 59 58 57 54 52 53 54 54 54 54 53 50 47 43 39 36 33 30 28 26 24
3 5 8 13 19 23 27 31 35 38 41 45 49 52 56 59 59 58 58 56 54 51 52 53 54 52 51 51 49 46 43 40 37 34 31 29 28 26
2 4 8 11 15 19 23 27 32 35 38 42 46 49 52 55 56 56 57 56 53 52 52 52 52 50 49 48 47 46 42 40 38 35 33 32 30 28
1 4 6 9 13 16 20 24 29 34 36 39 43 46 49 52 55 55 55 55 53 50 50 49 48 48 47 47 47 46 44 41 39 37 35 33 31 29
1 3 5 8 12 14 17 21 26 30 34 37 40 44 47 49 51 53 53 54 54 52 50 48 47 47 48 48 47 46 44 42 40 38 35 33 31 30
1 3 5 8 11 13 16 20 24 27 30 34 38 41 45 47 49 50 52 52 53 52 50 48 47 46 46 46 45 44 43 42 41 38 36 34 33 32
3 4 6 8 10 12 15 18 21 24 28 31 35 38 42 45 48 49 51 52 52 52 50 48 46 45 45 44 43 43 43 42 40 38 36 35 34 33

GEFSNE_500_meanwind_054.txt.gz
Wind_Speed
40 40 39 39 38 37 37 36 35 35 36 37 39 39 41 41 41 43 43 43 42 42 42 42 40 39 37 35 34 32 31 30 29 28 27 27 26 26
39 40 41 41 40 39 39 38 37 37 37 38 40 40 41 42 42 43 44 43 43 44 43 42 41 40 37 36 34 33 31 30 28 27 27 26 25 25
38 39 41 42 42 41 41 40 39 38 38 39 41 42 41 42 42 43 44 45 45 45 44 43 42 39 37 36 34 33 31 30 28 27 26 26 25 24
37 38 40 42 43 44 43 43 42 41 40 39 41 43 43 43 43 43 44 46 46 45 44 44 42 40 38 37 36 34 32 30 29 27 26 25 24 23
36 37 38 41 42 44 45 46 46 45 43 41 41 42 44 44 44 44 45 46 46 46 45 44 43 41 39 38 36 35 33 31 29 28 25 24 23 22
36 37 39 40 42 44 46 47 48 48 47 46 44 44 44 46 45 45 45 46 47 47 47 45 44 42 41 40 38 36 34 32 29 27 25 24 23 21
37 38 40 41 43 45 46 48 49 50 50 49 48 46 45 47 46 46 47 47 48 49 48 47 46 45 44 41 39 37 35 33 30 28 26 24 22 21
38 39 40 41 43 46 47 49 51 52 53 53 52 51 48 48 48 48 48 49 48 49 49 49 48 47 45 43 41 39 36 34 31 29 27 24 22 21
37 39 40 41 43 45 47 50 52 53 55 56 55 54 52 51 50 50 49 49 50 50 51 51 50 48 47 45 43 40 37 35 32 30 27 25 23 21
36 37 39 40 42 44 46 49 51 54 56 57 57 57 57 55 52 51 50 50 50 51 52 52 51 50 49 47 44 41 39 36 34 31 28 25 23 21
36 37 38 39 41 44 45 47 50 53 57 59 60 60 60 58 56 54 52 50 50 51 52 53 52 51 50 49 47 44 41 38 35 33 30 26 24 22
34 35 36 37 39 42 44 47 49 52 56 59 61 62 62 60 59 57 54 51 51 52 52 53 53 53 52 50 48 46 43 40 37 34 31 28 25 23
31 32 33 34 36 39 41 44 47 52 56 59 61 63 64 63 61 59 57 54 52 53 52 52 53 54 53 51 49 47 45 43 40 36 33 30 27 24
29 28 28 28 30 32 35 40 45 49 53 56 59 63 65 65 63 62 60 56 54 54 54 53 54 55 55 54 52 50 48 45 42 39 35 32 29 26
25 23 22 23 24 25 28 33 40 45 50 53 57 60 64 65 65 64 62 59 55 54 54 55 54 55 57 56 55 53 50 48 44 41 38 34 31 29
21 19 18 18 19 20 22 27 33 39 45 49 53 57 61 64 66 66 64 62 57 55 54 55 55 55 56 57 56 55 53 50 47 44 40 37 34 31
18 16 15 14 14 14 16 20 26 32 39 45 50 54 57 60 63 65 65 63 60 57 56 56 56 56 57 58 57 56 54 51 48 45 42 39 36 33
16 14 13 12 11 10 12 16 20 26 32 38 44 48 52 55 58 62 64 63 61 59 57 55 55 55 56 57 57 56 54 52 50 47 44 41 38 36
14 13 12 10 8 7 8 11 15 20 26 31 37 42 46 50 54 58 61 61 60 58 57 56 55 54 54 55 55 54 53 52 50 48 46 43 41 38
13 12 11 8 5 4 5 9 13 17 22 25 31 36 41 45 49 54 57 59 59 57 56 56 54 52 51 53 53 53 53 52 51 50 48 46 43 40
13 11 9 7 5 4 4 7 12 15 18 21 26 31 35 40 44 49 54 56 56 55 54 54 54 52 50 52 53 53 53 53 52 51 50 48 44 42
12 10 8 6 5 5 5 7 10 13 16 19 22 27 31 36 41 46 49 52 53 53 53 53 53 52 50 49 51 51 52 52 52 51 49 48 45 43
11 9 7 6 5 5 6 8 10 13 15 17 20 25 29 33 38 43 47 48 50 51 51 52 51 51 50 49 48 49 49 50 50 49 47 47 46 44

GEFSNE_500_meanwind_060.txt.gz
Wind_Speed
36 37 38 39 41 42 43 43 44 44 45 44 42 42 43 43 43 44 45 46 48 49 48 48 47 47 46 45 43 42 40 38 36 34 33 31 30 29
37 37 38 40 41 41 43 44 44 45 45 46 45 44 43 43 44 44 45 47 48 48 48 48 47 47 46 45 44 42 40 39 38 35 33 32 31 29
37 37 38 40 41 42 42 44 45 45 45 45 46 45 44 43 45 44 45 45 46 47 49 48 47 47 47 45 44 43 41 39 38 36 34 33 31 30
37 37 37 38 39 41 42 43 44 45 45 45 46 46 45 44 44 44 45 46 46 45 47 49 49 48 47 46 45 44 42 40 38 36 34 33 31 30
36 36 36 37 38 39 40 41 43 44 45 46 47 48 47 46 45 45 45 46 46 47 47 48 49 49 48 47 46 44 43 41 39 37 35 33 32 30
35 34 35 36 37 38 39 40 42 43 45 46 47 48 48 47 46 45 45 44 45 46 47 49 49 48 47 47 46 45 44 42 40 38 36 34 32 31
34 34 34 35 36 37 39 40 41 42 44 46 47 48 49 48 47 46 45 43 44 44 46 48 48 48 49 48 47 45 44 43 41 39 37 35 33 31
34 35 35 35 35 37 38 40 42 42 43 45 47 48 49 49 47 46 45 45 43 43 45 46 47 49 49 48 47 46 45 44 42 40 38 36 34 32
34 34 34 34 35 36 38 39 41 43 44 45 47 48 49 51 50 48 46 46 44 43 44 45 46 47 48 48 48 48 47 45 43 41 39 37 35 33
33 33 33 34 34 35 37 39 41 43 44 46 47 48 50 51 51 51 50 47 47 44 43 43 45 46 48 49 49 48 47 46 44 42 40 38 36 34
31 31 31 32 34 35 36 38 39 42 45 47 48 49 50 51 52 52 51 50 48 47 45 42 43 45 47 49 50 48 47 46 44 43 41 39 37 34
30 30 30 31 32 33 35 36 38 40 43 46 48 49 51 52 52 52 52 51 50 48 47 45 43 44 46 48 50 50 48 46 45 44 41 39 38 35
29 29 29 30 30 31 33 35 37 39 41 44 46 48 50 52 53 53 53 53 52 50 49 48 46 44 44 46 48 50 49 47 45 44 42 40 38 36
29 29 28 28 28 29 30 32 34 37 39 41 44 46 49 51 53 54 54 54 54 53 50 50 49 46 44 45 47 49 50 48 47 46 43 41 39 37
28 28 27 27 28 27 27 28 30 33 36 39 41 44 47 49 52 54 54 55 55 55 53 52 50 48 46 45 47 49 49 49 49 47 45 43 41 39
28 27 26 25 25 25 25 25 27 28 32 36 39 42 46 48 51 53 54 55 55 56 55 54 52 50 47 46 47 50 51 51 50 49 47 45 43 41
27 25 24 23 22 21 21 22 23 25 28 32 36 39 43 46 49 51 53 54 55 56 56 55 53 53 50 48 48 49 52 52 53 51 49 46 44 42
26 23 22 20 20 20 19 19 20 21 24 28 33 36 40 43 46 49 52 54 55 55 55 56 54 53 52 49 49 50 51 53 53 52 50 48 45 43
24 22 20 18 18 17 17 17 17 18 20 24 29 33 36 40 43 47 50 52 54 54 55 55 56 55 53 50 50 50 51 52 53 53 51 48 46 44
22 20 18 17 16 16 16 15 15 16 17 21 25 29 33 37 39 43 47 50 52 54 55 55 55 55 53 51 50 50 51 52 54 53 51 50 48 46
22 20 17 16 15 15 14 13 12 13 14 17 21 26 30 34 37 40 44 47 50 52 54 55 55 56 55 53 51 51 52 53 53 53 52 50 49 47
21 19 17 15 14 13 13 12 11 11 13 14 18 22 26 31 34 37 40 43 47 49 51 54 55 55 55 54 52 51 52 52 52 52 52 51 49 48
20 18 16 15 13 12 12 11 11 11 11 13 16 19 23 28 32 35 37 41 44 47 49 52 53 54 54 55 54 52 52 53 52 52 51 50 49 48

GEFSNE_500_meanwind_066.txt.gz
Wind_Speed
35 36 36 37 37 37 38 38 39 39 39 41 41 42 42 42 42 42 42 42 43 43 44 44 45 46 46 46 47 47 47 46 44 41 39 37 35 33
38 38 38 39 39 39 40 40 41 41 41 42 43 43 43 43 43 43 43 44 44 43 43 44 44 45 47 47 47 47 47 47 46 43 41 39 37 35
39 39 39 39 40 40 40 41 41 42 42 42 44 44 44 44 44 44 45 44 45 44 44 44 43 43 46 47 47 47 47 46 46 44 42 41 40 37
39 38 39 39 39 39 40 40 40 41 42 42 43 44 45 45 45 45 46 45 45 45 45 45 44 44 45 48 48 48 47 47 46 45 44 43 41 39
38 37 37 37 37 38 38 38 38 39 40 41 42 43 44 44 45 45 45 46 46 45 45 45 45 45 44 47 48 49 48 48 46 45 45 44 42 40
37 36 36 35 35 36 37 37 38 38 39 40 41 42 42 43 44 45 45 46 45 45 45 45 45 45 45 46 47 48 48 48 47 46 45 44 42 40
34 34 34 33 33 34 35 36 36 37 38 39 39 40 41 42 42 43 44 45 45 45 44 44 44 45 45 46 47 48 49 48 47 46 45 44 41 39
33 33 33 33 33 33 33 34 35 35 36 37 38 39 40 41 41 42 43 43 44 45 45 45 44 44 45 45 47 48 49 49 48 47 46 43 42 40
33 32 32 32 32 31 31 32 33 34 35 36 37 37 39 40 41 41 42 43 43 45 46 45 44 43 45 45 46 47 47 48 48 47 46 44 43 41
33 32 31 31 31 30 30 30 31 32 33 34 35 37 38 39 40 41 42 43 43 44 45 45 44 43 43 44 45 46 47 48 48 48 48 46 44 42
32 31 31 31 30 30 30 30 31 32 33 34 34 35 37 38 40 40 42 43 43 44 44 44 45 43 42 43 43 46 48 48 48 49 49 48 46 44
32 31 31 31 31 30 30 31 31 32 32 32 33 34 36 38 39 40 41 43 43 44 45 44 44 44 42 42 43 45 46 47 48 48 49 49 48 46
32 31 31 31 31 30 30 30 31 31 32 32 33 33 35 36 38 40 41 43 44 44 45 46 45 44 43 42 42 44 46 47 47 48 49 49 49 47
32 32 31 31 30 29 29 29 30 30 30 31 32 33 34 34 36 39 41 42 44 45 45 46 46 45 44 42 41 42 43 45 47 48 49 49 49 48
32 32 31 30 30 29 29 29 29 29 29 29 29 30 32 33 34 36 39 42 44 45 46 45 45 45 45 44 41 42 42 42 44 46 48 49 49 49
32 31 31 31 30 29 28 28 27 27 27 27 27 27 29 31 33 34 37 40 42 44 45 45 45 44 45 44 42 41 42 41 44 46 48 49 50 50
32 31 31 30 29 28 27 26 26 25 26 25 25 26 28 29 31 33 35 38 41 43 44 45 44 44 44 45 43 42 41 41 43 46 48 49 50 50
32 31 30 29 28 26 25 25 25 24 24 25 24 24 26 28 30 32 34 37 39 41 43 46 45 45 45 44 43 42 42 41 42 43 46 48 49 50
31 31 30 28 27 25 24 24 23 23 23 23 22 22 23 25 28 31 33 35 37 39 41 44 46 46 45 44 42 42 41 42 42 42 44 47 49 49
30 30 29 27 25 24 24 23 22 22 22 21 21 21 21 22 25 29 31 34 36 38 40 43 44 45 45 45 44 42 41 40 40 41 43 45 49 50
29 28 27 25 24 24 23 23 22 21 20 20 19 19 20 21 23 27 30 33 35 37 39 41 42 44 45 45 45 44 43 42 41 41 42 44 47 49
28 27 26 25 25 24 23 22 21 20 19 19 18 18 19 19 21 25 28 31 34 35 38 40 41 43 43 45 45 45 44 44 43 43 43 43 45 47
27 27 25 24 25 25 23 22 20 20 19 19 18 17 17 18 20 23 27 29 32 35 37 39 41 41 42 44 46 46 45 45 43 43 44 44 45 48

GEFSNE_500_meanwind_072.txt.gz
Wind_Speed
29 30 31 31 32 33 34 35 35 36 37 38 38 38 38 38 39 39 39 40 40 41 42 42 41 41 41 42 43 44 44 44 44 43 42 41 39 37
31 31 32 32 33 34 35 36 37 37 38 41 41 42 41 41 41 42 42 42 42 43 43 43 43 43 42 43 44 44 44 44 44 44 44 43 42 40
33 33 33 32 32 33 33 34 35 36 37 39 42 43 44 44 43 44 44 45 45 45 45 45 45 45 44 44 45 45 45 45 45 46 45 45 45 43
34 34 33 33 32 32 32 33 34 34 35 36 39 41 43 44 44 45 45 46 47 47 47 47 47 47 47 46 45 46 45 46 46 47 47 47 46 45
35 35 34 33 32 32 32 32 33 33 33 34 36 38 40 42 43 44 45 46 46 47 48 48 48 48 48 48 47 47 46 46 46 48 49 48 48 47
36 35 34 33 32 32 31 31 31 31 32 32 33 36 38 40 40 42 43 44 46 47 48 49 49 49 49 49 49 48 48 47 46 47 49 49 49 49
37 36 35 33 33 32 31 31 30 30 31 32 32 34 36 38 39 40 41 42 44 46 47 49 50 50 50 50 50 49 48 48 48 48 49 49 50 50
37 36 35 34 33 32 31 31 30 30 31 31 31 32 34 36 37 38 40 41 42 45 46 48 50 51 51 51 51 50 50 49 49 49 48 49 50 50
38 37 35 35 33 32 32 31 31 31 31 30 30 31 32 34 35 37 38 40 41 43 45 45 48 49 51 51 52 52 51 50 49 49 48 49 50 51
38 37 36 35 34 33 32 32 31 31 31 31 30 31 32 34 35 36 37 38 40 42 44 44 47 48 49 50 51 51 51 51 50 49 48 49 50 51
39 37 36 35 34 33 32 32 31 32 31 31 31 31 32 33 35 35 36 37 38 41 43 44 46 48 49 50 50 50 51 51 51 50 48 49 50 51
39 38 36 35 34 33 32 31 31 31 31 31 31 31 32 33 34 35 35 36 37 39 43 44 46 47 48 49 50 50 50 51 51 51 49 48 50 51
39 38 37 35 34 33 32 31 31 30 30 31 31 31 32 32 33 35 35 36 37 38 41 44 45 47 48 48 50 50 50 49 50 51 50 49 50 51
39 37 36 35 34 33 32 31 31 30 30 30 31 31 32 33 32 33 35 36 37 38 41 43 44 46 47 48 49 50 50 49 49 50 50 50 49 50
39 37 36 35 34 33 32 31 31 30 30 30 30 31 32 32 33 33 34 35 36 37 39 42 43 45 46 47 48 49 50 50 48 48 51 51 50 49
38 37 35 35 34 33 32 31 31 30 30 30 30 30 31 31 32 33 34 35 35 36 38 41 43 45 46 46 47 48 49 49 48 48 49 50 51 50
39 37 35 34 34 32 31 30 30 30 29 29 28 28 29 30 30 32 32 34 35 36 38 40 42 44 45 47 47 47 46 46 47 48 48 49 50 51
39 37 36 34 33 32 31 30 30 29 28 28 28 28 28 29 29 31 31 32 33 34 37 39 42 44 45 46 47 46 45 44 45 46 47 47 49 50
39 38 36 34 33 31 30 29 29 28 27 27 26 27 27 28 28 29 30 30 31 33 35 38 40 42 44 45 45 45 44 44 44 44 45 46 47 49
39 37 35 34 32 31 29 29 28 28 27 27 27 27 27 26 27 27 28 28 29 31 33 35 37 40 42 44 46 45 45 44 44 43 44 45 47 48
38 36 34 33 32 30 29 28 28 28 27 27 26 26 26 26 25 25 26 26 28 29 31 33 36 39 41 43 45 44 44 44 43 43 43 44 46 48
36 34 33 32 30 29 28 28 28 27 27 27 26 25 25 25 24 23 23 24 25 27 29 32 35 37 39 41 42 43 44 44 44 44 43 42 43 45
34 33 31 31 30 29 28 28 28 28 27 26 25 24 24 23 22 22 21 21 23 25 27 30 33 35 38 40 41 42 42 42 44 45 43 43 43 44

GEFSNE_500_meanwind_078.txt.gz
Wind_Speed
24 23 23 23 23 23 24 24 26 27 29 30 32 33 34 36 37 38 38 39 39 39 39 40 41 41 41 41 42 42 42 42 43 44 45 44 42 41
25 24 24 24 25 25 25 25 26 27 29 31 32 33 34 36 38 40 41 42 42 43 42 42 42 42 43 43 43 44 43 42 43 45 46 46 45 44
26 27 27 27 27 26 26 27 27 27 28 30 32 33 33 35 37 39 41 43 45 46 46 46 45 45 45 45 45 45 45 44 44 45 46 47 47 47
28 28 28 29 29 28 29 29 29 29 29 30 32 33 34 34 36 37 40 42 45 47 48 48 48 48 47 47 47 47 47 46 45 45 46 47 47 48
30 30 30 30 31 31 31 31 31 31 30 30 31 33 34 35 36 37 38 40 43 45 47 49 50 50 50 50 49 48 48 48 48 47 47 47 48 47
32 32 32 32 32 33 33 33 33 32 32 31 32 33 34 35 36 36 37 38 40 42 45 47 49 50 51 51 51 51 50 50 49 49 49 49 49 49
34 34 34 34 34 34 34 34 34 34 33 33 33 33 34 35 36 36 36 37 38 40 42 45 47 49 50 52 52 53 52 52 51 51 51 50 50 50
36 36 35 35 35 35 35 35 35 35 35 34 34 34 35 35 36 35 35 36 37 39 40 41 44 47 49 50 52 53 53 53 53 53 53 52 51 51
37 37 37 37 36 36 35 36 36 36 36 35 34 34 35 36 36 36 35 35 36 38 39 40 42 44 47 49 50 52 53 54 54 54 54 54 53 52
39 38 39 39 38 37 36 36 37 37 37 35 34 34 35 36 36 36 35 35 35 37 38 39 41 43 44 46 48 50 52 53 54 55 55 55 55 53
41 41 40 40 40 39 37 37 37 38 37 35 35 35 35 36 36 36 35 35 35 36 38 38 39 42 43 44 46 48 50 52 53 55 55 56 55 55
43 43 42 41 41 40 39 39 38 38 37 36 36 35 35 36 36 36 35 35 35 35 37 38 38 40 41 43 45 47 49 51 52 54 55 55 56 56
45 44 44 44 43 42 41 40 39 38 37 37 36 36 36 36 36 35 35 35 35 35 37 39 39 39 40 41 43 46 47 49 51 52 54 55 56 57
46 46 46 46 45 43 42 41 40 39 38 37 36 37 37 37 36 35 35 35 35 35 37 38 38 39 40 41 42 44 46 48 50 51 53 54 56 56
49 48 47 47 47 45 43 42 41 40 39 38 37 37 37 36 36 36 36 35 35 35 36 37 38 39 40 40 41 43 45 46 48 50 52 53 55 56
53 51 50 49 48 46 45 44 43 42 40 38 37 37 36 36 36 36 36 35 35 35 36 37 38 39 39 40 42 43 44 45 47 48 50 52 53 54
56 55 53 51 49 47 46 45 44 43 41 39 38 37 36 36 36 36 35 35 34 34 35 37 38 38 39 39 41 42 44 45 46 47 49 50 52 53
58 56 54 53 51 49 47 46 44 43 42 40 39 37 36 36 36 35 34 34 33 33 34 36 37 38 38 38 39 41 43 45 46 47 48 50 51 53
60 57 54 53 51 49 47 45 44 43 42 40 39 37 36 35 35 35 34 34 33 33 34 35 36 36 36 37 38 41 42 44 45 46 47 48 50 52
60 57 55 53 51 49 47 45 43 42 41 39 38 37 36 35 34 34 34 34 34 33 33 34 34 35 35 35 36 38 40 41 43 44 45 47 48 50
59 57 54 52 49 48 46 44 42 41 40 39 37 36 35 34 33 33 33 33 33 32 32 32 33 34 34 33 33 35 38 40 41 43 44 45 46 48
56 54 51 48 46 44 43 41 40 40 38 36 35 34 33 33 33 33 33 32 32 32 31 31 32 32 31 31 32 34 36 38 39 41 42 44 44 44
49 47 45 43 41 40 39 38 37 37 35 34 33 32 33 33 32 32 31 31 31 30 30 30 30 29 28 29 30 32 34 36 38 39 40 42 43 43

GEFSNE_500_meanwind_084.txt.gz
Wind_Speed
16 17 17 17 18 18 18 19 20 20 20 20 20 21 22 24 26 28 29 31 33 34 35 35 36 37 37 37 38 38 38 39 40 40 41 42 44 43
18 18 18 19 19 20 20 20 21 21 22 22 22 22 22 24 25 27 29 30 33 35 36 37 39 39 40 40 40 40 41 41 41 42 42 43 44 45
20 20 20 20 21 21 22 22 22 22 23 24 24 24 24 24 25 26 28 30 32 33 36 38 39 41 42 42 43 43 44 44 44 44 44 44 44 45
22 22 22 23 23 23 23 23 24 24 25 26 26 26 26 26 26 27 28 29 31 33 34 37 39 41 43 43 44 45 46 47 47 47 47 46 46 46
25 25 25 25 25 25 25 25 26 26 27 27 28 29 29 28 28 28 29 30 31 33 34 36 37 40 42 44 45 46 47 48 49 50 50 49 49 48
27 27 27 27 28 28 28 28 28 28 28 29 30 30 30 30 30 30 30 31 32 33 34 35 37 39 41 43 45 47 48 49 50 51 51 51 51 50
29 29 30 30 30 31 31 31 30 30 30 31 31 32 33 32 32 32 32 32 33 34 34 35 36 38 39 41 44 46 47 49 50 51 52 53 53 52
31 32 32 32 33 33 33 33 33 33 33 33 33 34 34 34 34 34 34 34 34 35 35 36 37 37 38 40 41 43 46 48 49 50 52 53 54 54
34 34 34 35 35 36 36 36 36 36 36 35 35 36 36 36 36 36 35 35 35 36 36 36 38 38 38 39 40 42 44 46 48 49 51 53 54 55
37 37 37 38 39 39 38 38 38 38 38 37 37 38 38 38 38 37 37 36 36 37 37 37 38 39 39 39 39 41 43 44 46 48 50 51 53 55
40 41 41 41 42 42 42 41 41 41 41 40 40 40 40 40 40 39 38 38 37 37 38 38 38 39 39 39 40 40 42 43 44 46 47 49 51 54
44 44 44 44 45 45 45 44 44 44 45 44 42 42 41 41 41 41 40 39 38 38 39 39 39 39 39 39 40 41 41 42 43 44 46 47 49 51
48 47 47 47 47 48 48 48 47 47 47 46 45 44 43 43 43 42 42 41 40 38 39 40 39 39 40 39 39 40 41 41 42 43 45 46 47 49
51 51 51 51 51 51 51 51 51 51 50 49 47 46 46 45 45 44 43 42 41 40 40 41 40 40 40 39 39 39 40 41 41 42 43 45 47 48
55 56 55 55 55 55 55 54 54 54 53 51 50 49 48 48 47 46 45 43 42 41 41 41 41 40 40 40 39 39 40 41 41 42 42 43 45 47
59 59 59 60 60 59 58 58 57 55 55 54 53 51 50 49 47 47 46 45 43 42 41 41 41 40 40 40 40 40 40 41 42 42 42 43 44 45
64 64 64 64 64 63 61 60 59 57 57 56 55 53 51 50 49 48 47 46 44 42 41 41 41 41 40 40 40 40 40 41 41 42 43 43 43 44
67 67 67 66 65 64 63 62 60 59 57 56 55 53 51 50 49 48 47 45 44 42 41 40 41 41 40 39 39 40 40 40 41 42 43 43 43 44
69 68 68 66 65 64 63 61 59 58 56 55 54 52 50 49 48 47 45 44 42 41 40 40 40 40 40 39 38 39 39 40 40 41 42 43 42 43
68 67 66 64 62 61 60 59 57 56 54 52 50 49 49 48 47 47 46 44 43 42 40 40 40 39 39 38 37 38 38 39 39 40 41 42 42 43
64 63 61 60 58 56 54 53 52 51 50 50 48 47 47 47 46 45 44 43 42 41 40 39 39 39 38 38 37 36 37 38 37 38 39 40 41 42
57 56 54 53 51 50 48 47 46 45 45 45 45 45 45 44 43 43 43 43 41 40 38 37 37 37 37 37 36 36 36 37 37 37 37 38 39 40
50 48 47 46 45 44 43 41 40 39 39 39 39 39 39 39 39 39 39 38 37 37 37 36 36 36 36 36 35 35 35 35 36 36 35 36 37 39

GEFSNE_500_meanwind_090.txt.gz
Wind_Speed
18 18 18 18 18 18 18 18 19 18 17 17 17 18 19 19 20 20 20 21 21 22 23 24 25 26 27 27 28 28 29 30 31 32 33 34 35 34
20 21 21 21 21 21 21 21 21 21 21 20 19 19 20 20 20 22 22 22 23 24 24 25 25 26 27 29 30 31 31 32 32 33 34 35 36 37
23 23 23 23 23 23 23 23 23 23 23 23 22 22 22 23 23 23 23 24 24 25 25 26 26 26 27 28 30 31 32 33 34 35 35 36 37 38
25 25 25 26 26 26 26 26 26 25 25 25 25 25 24 25 25 26 26 26 26 26 27 27 27 28 28 29 29 30 32 34 35 36 37 39 39 40
27 27 27 27 28 28 28 28 28 28 28 27 27 27 27 27 27 27 28 28 28 28 28 28 29 29 29 29 30 31 32 33 35 36 38 40 41 42
29 29 29 29 30 30 30 30 31 30 30 30 30 30 30 30 30 30 29 29 29 30 30 29 29 30 31 31 31 32 33 34 35 36 37 39 41 43
31 31 31 32 32 32 32 32 32 32 32 32 32 33 33 33 32 32 31 31 31 32 32 31 31 31 32 32 32 32 33 34 35 36 37 38 40 42
33 33 33 33 34 34 34 34 34 34 34 35 35 35 36 35 35 35 35 34 33 34 33 33 34 33 33 33 33 33 34 34 35 36 36 37 39 41
35 35 35 36 36 36 36 37 37 38 38 38 38 38 38 38 37 37 37 36 35 36 36 35 35 35 35 34 34 34 35 35 36 36 37 37 38 40
38 38 38 38 39 40 40 40 40 40 40 41 41 40 40 40 41 40 39 39 38 38 39 38 37 37 37 36 35 35 35 36 36 36 37 37 38 39
40 41 41 41 42 44 44 44 44 43 44 45 44 43 43 43 44 44 43 43 41 40 41 41 39 39 38 38 38 37 36 36 36 37 37 38 38 39
40 41 42 43 44 45 46 47 47 47 48 48 47 47 46 46 46 47 47 46 45 43 43 44 42 41 40 39 39 39 38 37 37 37 38 38 39 39
43 44 45 46 47 48 49 49 49 50 51 51 51 51 50 50 49 50 50 49 48 46 45 46 45 44 43 40 40 40 39 38 38 38 38 39 39 39
47 48 49 51 51 52 52 53 54 55 55 55 55 54 54 53 53 52 52 51 51 50 48 48 46 45 44 42 40 40 40 40 39 38 38 38 38 39
50 52 53 55 56 56 57 57 58 59 60 60 59 59 58 57 56 55 53 52 51 50 48 48 48 47 46 44 42 41 41 41 41 40 39 39 38 39
55 57 58 59 60 61 61 62 63 63 64 63 62 61 60 58 57 56 55 53 52 50 49 48 48 48 47 46 45 43 42 42 41 41 41 40 39 39
60 61 62 63 64 64 65 65 65 65 65 63 62 61 59 59 58 56 55 54 52 51 49 48 48 47 47 46 45 44 43 43 42 42 42 40 39 39
64 64 65 66 66 67 67 66 65 65 64 62 61 60 60 58 57 56 55 54 54 52 49 48 47 47 46 45 44 44 43 42 41 41 41 40 39 39
64 64 64 65 65 65 64 64 63 62 62 61 60 58 56 55 55 54 54 53 52 51 50 49 48 46 45 44 42 43 42 41 41 41 41 40 39 39
61 61 61 61 61 60 59 58 57 56 56 56 55 54 52 51 50 49 49 49 50 49 48 48 48 46 44 44 43 42 41 40 40 41 40 40 39 39
57 57 56 55 54 53 52 51 51 50 49 48 47 47 46 45 45 45 45 45 45 45 45 45 44 44 44 44 43 42 41 41 41 40 39 39 39 38
52 51 50 48 47 46 45 45 44 43 42 41 40 40 40 40 40 40 40 40 40 40 41 41 42 43 42 41 41 40 40 40 39 39 38 38 37 37
47 45 43 42 41 41 40 39 38 37 36 36 36 36 35 35 35 34 35 35 36 37 37 37 38 40 40 39 39 39 38 38 38 37 36 36 36 36

GEFSNE_500_meanwind_096.txt.gz
Wind_Speed
12 12 12 12 12 12 12 12 12 12 12 12 13 13 14 14 14 14 14 15 15 15 16 17 18 19 20 22 22 23 24 25 26 27 28 29 31 32
15 15 15 15 15 16 16 16 15 15 15 15 15 16 16 17 17 17 17 17 18 18 18 19 19 20 21 22 23 25 25 26 27 28 29 30 31 32
19 19 18 18 18 18 19 19 19 19 19 18 18 19 19 19 20 20 20 20 20 21 21 21 21 22 22 23 24 25 26 27 28 29 30 31 32 33
22 22 21 21 21 21 21 22 22 22 22 22 22 22 22 22 23 23 23 23 23 23 24 24 24 24 25 25 26 26 27 28 29 30 31 31 33 34
24 24 24 24 24 24 24 24 25 25 25 25 25 25 25 25 25 26 26 26 26 26 27 27 27 28 28 28 28 28 29 30 30 31 32 32 33 34
27 27 27 27 27 28 27 28 28 28 28 28 28 28 28 28 28 29 29 29 30 30 30 30 30 31 31 31 31 31 31 32 32 33 33 34 34 35
30 30 30 30 30 31 31 31 31 31 31 31 30 31 31 32 32 32 32 32 33 33 33 33 34 34 34 34 33 34 34 34 34 35 35 35 36 36
32 32 32 33 34 34 35 35 35 34 34 34 34 34 35 35 35 35 35 35 35 36 36 36 37 37 37 37 37 37 37 36 36 36 36 36 37 37
33 34 35 35 36 37 37 37 37 37 37 38 38 38 38 39 40 39 40 40 39 40 41 39 40 40 40 40 40 40 39 39 39 38 38 38 39 38
35 35 35 36 37 38 38 38 38 39 40 41 41 41 42 42 43 43 44 44 44 44 45 44 43 44 44 43 43 43 42 42 41 41 41 41 40 40
36 36 38 39 39 40 41 41 40 41 43 44 44 44 45 46 47 47 47 48 46 46 47 47 46 47 47 46 46 46 45 45 44 43 43 43 43 43
37 38 38 40 41 42 43 43 43 43 44 45 46 46 47 48 50 51 51 52 51 50 50 51 51 51 50 49 49 49 48 48 47 46 45 44 45 44
38 39 40 40 41 43 44 45 45 46 47 48 50 50 51 52 53 55 56 57 56 55 54 55 55 55 55 53 52 52 51 50 49 48 47 46 46 45
39 40 41 43 44 45 46 48 49 51 52 53 54 54 55 57 58 59 60 61 61 61 60 61 60 60 59 58 56 55 54 53 52 51 50 49 47 47
42 44 45 46 47 49 51 53 55 56 57 58 59 60 61 62 63 64 64 64 64 64 64 64 64 63 63 61 59 57 56 55 55 53 52 51 50 49
46 48 49 51 52 53 55 56 58 60 61 62 63 64 64 65 66 67 67 67 67 66 65 66 65 64 63 62 61 58 57 55 55 55 54 53 51 50
50 52 53 54 55 56 57 59 60 61 62 63 64 64 65 66 67 67 68 68 67 66 65 65 65 65 64 63 62 59 57 56 55 54 54 53 51 51
53 54 55 55 56 58 59 60 61 62 62 63 63 64 64 65 65 64 64 64 64 63 62 61 62 62 63 62 61 59 58 56 55 54 53 52 51 50
54 55 56 57 57 58 59 59 60 61 61 61 61 61 60 60 58 57 57 57 57 56 56 56 56 58 59 59 57 59 58 56 55 54 53 52 49 48
54 55 55 55 55 55 56 57 57 57 57 56 55 54 53 53 52 52 52 52 52 51 50 50 51 52 52 52 53 54 55 55 55 54 52 52 50 49
52 52 51 51 52 52 52 52 51 50 49 48 47 47 46 47 47 47 47 47 46 45 45 45 46 47 48 48 47 48 49 52 53 52 51 51 49 47
48 47 47 47 46 45 44 43 42 41 40 40 40 41 42 41 41 40 40 39 40 39 39 39 40 41 42 42 42 42 44 46 48 49 49 48 47 46
43 42 42 41 40 39 37 36 35 34 34 35 35 36 35 35 35 34 34 33 33 33 33 34 34 35 36 36 37 37 38 40 42 44 45 45 45 44

GEFSNE_500_meanwind_102.txt.gz
Wind_Speed
15 15 15 14 14 14 14 14 14 14 14 14 14 15 15 15 15 16 16 17 18 18 18 18 18 19 19 19 20 21 22 22 23 24 25 26 27 27
19 19 18 18 18 18 18 18 18 18 18 18 18 18 19 18 19 19 19 20 20 21 21 21 22 22 22 22 22 23 23 24 25 25 26 27 28 28
23 23 22 22 22 22 22 22 22 21 22 22 22 22 22 22 22 23 23 23 23 24 24 24 25 25 25 25 25 25 26 26 26 27 27 28 30 30
27 27 27 26 26 26 26 26 25 25 25 25 26 26 26 26 26 26 26 27 27 27 27 27 28 28 28 29 29 29 29 29 29 29 29 30 30 30
30 30 30 30 30 30 29 29 29 29 28 29 29 29 29 29 29 30 30 30 30 30 30 31 31 31 31 32 32 32 32 32 32 32 32 32 33 33
33 33 34 34 33 33 33 33 33 32 32 32 31 32 32 33 33 33 33 33 33 34 34 34 34 35 35 35 36 35 36 35 35 35 35 35 35 35
36 37 37 37 37 37 36 36 36 35 35 35 35 35 36 36 37 36 36 36 36 37 37 37 38 38 38 39 39 39 39 38 38 38 38 38 38 38
39 39 39 39 39 40 40 39 39 38 39 39 39 39 39 40 41 40 40 39 39 40 41 41 42 41 42 42 43 43 42 42 42 42 42 41 41 41
40 40 40 40 40 41 42 42 42 42 42 42 42 42 42 43 43 43 44 44 42 43 44 43 45 45 46 46 46 47 46 46 46 46 45 45 44 44
41 41 42 42 43 43 43 43 44 44 44 44 44 44 44 45 46 47 47 47 46 46 48 46 46 48 49 49 50 50 50 50 50 50 49 49 48 48
42 42 42 43 44 44 45 44 45 45 46 47 47 47 47 48 49 49 50 50 49 48 50 51 50 51 52 52 52 53 53 53 53 53 53 52 52 52
42 42 43 44 44 45 45 46 46 47 48 49 50 50 50 51 51 52 53 54 54 54 53 55 55 56 55 53 54 56 56 56 56 56 56 55 55 55
42 42 43 44 45 46 47 48 48 49 50 51 52 52 53 54 55 56 57 58 58 58 59 60 60 61 61 59 58 59 60 60 60 60 59 59 58 58
43 43 44 45 46 47 48 49 50 52 52 53 53 54 54 56 57 59 60 61 62 63 64 65 66 66 66 65 63 62 62 63 63 63 62 62 61 61
44 45 46 46 48 49 51 53 54 54 55 55 56 57 58 60 61 62 63 65 66 67 68 69 70 69 69 69 67 67 66 65 65 64 64 63 63 63
46 47 48 50 51 52 53 55 55 56 57 58 58 60 61 62 64 65 66 66 67 67 68 68 69 69 69 69 69 69 68 67 65 65 65 65 64 64
50 51 51 52 53 54 56 57 57 58 58 59 60 62 63 64 64 65 65 66 66 66 65 66 67 67 67 68 67 67 67 66 65 65 66 66 65 65
52 53 53 54 54 55 56 57 58 59 60 60 61 61 62 62 62 63 64 64 64 64 64 64 64 65 65 64 65 64 64 64 64 64 65 65 63 62
52 53 54 54 54 55 55 56 57 58 58 58 58 59 59 60 60 60 60 61 60 60 59 59 59 59 59 59 58 59 60 60 60 60 59 59 58 56
53 53 53 54 54 55 55 55 55 55 55 55 55 55 55 55 55 55 54 53 52 51 50 51 52 53 53 52 51 51 53 54 53 53 53 52 51 51
51 51 51 51 51 51 51 51 51 50 49 49 49 48 48 48 47 46 45 44 43 43 43 44 45 46 46 45 44 42 43 45 46 46 46 46 45 46
48 48 47 47 46 46 45 45 44 44 43 43 42 41 41 40 39 38 38 37 37 38 38 38 38 38 38 38 36 35 34 36 38 39 39 40 40 40
44 43 43 42 41 40 39 39 38 38 38 37 36 36 35 34 33 33 32 32 32 32 32 32 31 31 31 31 30 29 29 29 30 31 32 34 35 35

GEFSNE_500_meanwind_108.txt.gz
Wind_Speed
16 15 15 16 16 16 16 17 17 17 17 17 18 18 18 19 19 19 19 19 20 20 20 20 21 21 21 21 21 21 22 21 21 21 22 22 23 23
19 19 19 19 20 20 20 20 20 21 21 21 21 21 22 22 22 23 23 23 23 23 23 24 24 24 24 24 24 24 24 24 24 24 24 24 25 25
23 23 23 23 23 24 24 24 24 24 25 25 25 26 26 26 26 26 27 27 27 27 27 27 27 27 27 27 28 28 28 28 27 27 27 27 27 27
26 26 27 27 27 28 28 28 28 29 29 29 30 30 30 30 30 30 31 31 31 30 31 30 30 30 30 31 31 31 31 31 31 31 31 30 30 30
28 29 30 30 30 31 31 32 32 32 32 33 33 34 34 34 34 34 34 34 34 34 34 34 34 34 34 34 34 34 34 34 34 34 34 34 34 33
31 32 32 33 33 34 34 35 35 35 36 36 37 37 37 38 38 38 38 38 38 38 38 38 38 38 38 38 38 38 38 38 38 38 38 37 37 37
33 34 35 35 36 37 37 38 38 38 39 39 39 40 40 40 40 41 41 40 40 41 41 41 42 41 41 41 41 41 41 41 41 41 41 41 41 40
34 35 36 37 38 38 39 40 40 40 40 41 42 42 42 42 42 43 43 43 43 43 43 43 44 44 44 44 43 43 43 44 44 44 44 44 44 43
36 37 38 39 40 42 43 43 43 43 43 43 44 43 44 45 45 45 45 46 46 47 47 45 46 47 47 47 46 46 46 47 47 47 47 47 47 46
38 39 40 41 41 42 43 43 43 43 44 45 46 45 46 47 47 47 47 47 47 47 48 48 48 49 50 49 49 49 49 50 50 50 50 50 50 50
40 40 41 42 43 43 44 44 45 47 47 47 48 49 49 48 49 49 49 49 49 49 50 51 50 51 52 52 52 52 52 53 54 55 54 53 53 53
41 42 42 44 44 44 45 46 47 48 48 48 49 50 50 50 51 51 51 51 51 51 52 53 53 53 53 53 53 54 55 55 56 57 57 57 57 57
42 43 44 46 47 47 47 47 48 49 49 50 50 51 51 51 51 52 52 53 53 53 53 54 54 55 55 55 55 56 58 58 59 60 60 60 60 60
44 45 45 46 47 48 48 48 49 50 50 51 51 52 53 53 54 55 56 56 56 56 56 56 57 57 58 58 58 59 60 61 61 62 62 62 62 61
46 47 49 50 51 51 51 52 52 53 53 54 54 54 54 55 55 56 56 57 58 58 59 59 59 60 61 61 61 61 61 62 63 63 63 63 64 64
49 50 51 53 54 54 55 56 56 57 57 57 57 57 57 57 57 57 57 58 58 58 60 60 61 61 61 61 61 62 62 62 63 63 63 63 63 63
52 53 55 56 57 57 58 58 58 58 58 57 57 57 57 57 57 57 57 58 58 58 59 59 60 60 60 59 59 60 60 59 59 59 59 59 59 60
53 54 55 56 57 57 57 57 57 57 57 57 57 57 57 57 57 57 57 57 57 57 57 56 57 57 56 55 56 56 56 56 56 55 55 55 55 56
54 55 55 55 56 56 56 56 56 56 55 55 56 56 56 56 56 55 55 55 54 53 53 53 52 51 50 49 50 51 52 52 52 51 50 51 51 52
54 54 54 53 53 53 53 53 53 53 53 52 52 52 51 51 50 50 50 49 48 48 47 47 47 46 46 44 43 44 46 46 46 46 47 48 48 48
51 51 50 50 49 49 49 48 48 48 47 46 46 45 45 44 44 44 43 42 42 41 41 41 41 41 40 39 38 38 39 40 40 40 40 41 42 42
46 46 45 45 44 44 43 43 42 42 41 40 40 40 39 39 39 38 38 38 37 37 36 36 36 36 35 35 34 33 33 34 34 35 35 36 36 36
41 40 40 40 39 38 38 38 37 37 36 36 35 35 35 34 34 34 34 33 32 32 31 31 31 31 31 30 30 30 30 30 31 31 32 33 33 32

GEFSNE_500_meanwind_114.txt.gz
Wind_Speed
16 16 16 16 16 16 16 17 17 17 17 16 16 17 17 17 17 18 18 18 19 19 19 19 20 20 19 19 19 19 19 19 20 20 20 20 20 20
19 19 19 20 20 20 20 21 21 21 21 21 20 21 21 21 21 22 22 22 22 23 23 24 24 24 23 23 23 23 22 22 22 22 23 23 23 23
22 22 22 23 23 23 24 24 25 25 25 25 24 24 24 25 25 25 25 26 26 27 27 27 28 28 28 27 27 27 26 26 26 25 25 25 26 25
24 24 25 25 26 27 27 27 28 28 29 29 29 28 28 29 29 30 30 30 30 31 31 31 32 32 32 32 31 31 30 30 30 29 29 29 29 29
26 26 27 28 28 29 30 30 30 31 31 32 32 32 32 32 33 33 34 35 35 35 35 35 35 36 36 36 35 35 35 34 34 34 33 33 32 32
26 28 29 29 30 31 31 32 33 33 34 34 35 35 36 36 37 37 37 38 38 39 38 38 38 38 38 38 38 38 38 38 38 38 37 37 37 36
27 28 29 30 32 32 33 34 35 36 37 37 38 39 39 40 39 40 40 41 41 42 42 40 40 40 40 40 40 41 41 41 41 41 41 40 40 40
28 30 31 31 32 33 35 36 37 37 39 40 40 41 41 41 41 42 43 42 42 42 43 42 42 42 43 43 43 44 44 44 44 44 43 43 43 42
30 31 31 32 33 34 35 36 37 38 39 40 41 41 42 43 43 44 44 44 44 44 45 45 45 46 46 46 46 46 46 46 46 46 46 45 44 44
31 32 33 35 35 36 37 38 40 40 41 42 42 43 44 45 46 46 46 47 47 47 48 48 48 48 48 48 47 47 47 47 47 48 48 48 47 47
33 33 34 35 36 38 39 40 41 43 44 45 45 46 47 47 48 48 49 49 48 48 49 50 49 49 49 48 48 49 48 48 48 48 48 49 49 49
34 35 36 38 40 41 42 43 44 45 46 48 49 49 49 49 49 50 51 51 51 51 51 52 53 53 51 50 50 51 51 52 51 51 51 51 51 51
37 38 39 41 42 44 45 46 47 48 49 50 51 52 53 54 54 54 54 54 54 54 53 54 54 55 55 53 52 53 53 53 53 52 52 52 52 52
40 42 43 44 46 47 48 49 51 52 53 54 55 56 56 57 56 57 57 57 57 57 57 57 57 57 57 56 55 54 53 53 53 53 53 53 53 53
44 45 47 48 49 51 52 53 54 56 57 58 59 59 60 60 59 59 59 58 58 59 59 59 60 59 59 58 57 55 55 54 54 54 54 53 53 53
47 49 50 52 53 54 55 56 57 58 59 59 60 60 61 61 61 61 60 60 59 59 59 60 59 59 58 57 56 56 56 55 55 55 55 54 54 54
50 52 53 54 55 56 57 58 58 58 58 58 59 59 59 59 59 59 59 59 59 59 58 57 57 56 55 55 54 54 54 54 54 54 54 53 53 54
53 54 55 56 56 57 57 58 58 57 57 57 57 57 57 56 56 55 55 55 54 54 54 53 53 52 51 51 52 51 50 50 50 50 50 50 50 49
54 55 55 55 56 56 55 55 55 54 54 53 53 52 52 52 52 51 51 50 49 48 48 48 48 48 47 46 45 47 46 45 45 45 45 45 45 45
53 54 54 53 53 52 52 51 51 50 49 49 48 47 47 46 46 46 45 44 44 43 43 43 43 43 42 41 40 40 42 41 41 40 40 41 40 40
51 50 50 49 49 48 47 47 46 45 44 44 43 43 42 42 42 41 41 40 40 39 39 38 39 38 37 36 35 34 35 36 36 35 35 35 35 35
47 47 46 46 45 44 44 43 42 41 41 41 40 40 39 39 38 37 36 35 35 34 34 33 33 33 33 32 30 29 30 30 31 30 30 30 30 31
44 44 43 42 42 41 40 39 39 38 38 38 37 37 36 35 33 32 32 31 30 29 29 29 29 29 28 27 26 25 25 26 26 27 28 29 29 29

GEFSNE_500_meanwind_120.txt.gz
Wind_Speed
15 15 15 14 14 14 14 14 14 14 15 15 15 15 15 16 16 16 17 17 17 17 18 18 19 19 19 19 20 20 20 21 21 21 22 22 21 21
18 18 18 18 18 18 18 18 17 17 18 18 18 18 19 19 19 20 20 21 21 21 21 22 22 23 23 24 24 24 24 24 25 25 25 25 25 25
20 20 21 21 21 22 21 21 21 21 21 22 22 22 22 22 23 23 23 24 25 25 26 26 26 27 27 28 28 28 28 28 28 29 29 29 29 29
21 22 22 23 23 24 24 25 24 24 25 25 25 25 25 26 26 26 27 28 29 30 30 30 31 32 33 33 32 33 33 33 33 33 33 33 33 33
23 23 24 24 24 25 26 27 27 27 28 28 28 29 29 29 29 30 31 32 33 33 34 34 35 36 36 37 37 37 37 37 37 37 37 37 37 37
23 23 24 25 26 26 27 28 28 29 30 30 31 32 32 33 34 35 35 35 36 37 37 37 37 37 38 38 39 40 40 40 41 41 40 40 40 40
23 24 24 24 25 26 27 28 29 30 30 31 32 33 34 35 36 36 37 38 38 39 39 39 40 40 40 40 40 41 42 42 43 43 44 44 44 43
24 25 25 27 28 28 29 30 31 32 33 34 34 35 36 37 38 39 40 40 40 42 43 42 44 43 43 43 44 45 45 45 45 46 47 47 47 46
26 27 27 28 29 31 32 32 33 34 35 36 37 38 39 40 41 42 43 44 44 45 46 46 47 47 47 48 48 49 49 49 50 50 49 50 50 50
27 29 29 30 31 32 33 34 35 36 37 38 39 41 42 43 44 45 46 47 48 48 49 50 50 51 51 52 53 54 53 53 53 53 53 53 53 53
29 30 30 32 33 34 34 36 37 39 40 41 43 45 46 47 48 49 50 51 52 52 54 54 54 54 54 55 56 57 57 56 56 56 56 55 55 54
30 31 32 33 35 36 37 39 40 42 43 45 47 48 49 51 52 53 54 55 56 57 58 59 59 59 58 59 59 60 60 60 59 59 59 59 58 57
32 33 35 36 38 39 40 42 43 45 46 48 49 51 53 55 56 57 58 59 60 61 62 62 62 62 63 62 61 62 63 63 63 63 64 63 62 61
34 36 37 39 41 42 44 45 47 49 50 52 54 56 57 58 59 61 62 62 63 63 64 64 64 64 65 65 64 64 64 65 65 65 65 64 64 63
37 39 41 43 44 46 48 49 51 52 54 55 57 58 59 60 61 61 62 62 63 64 64 64 64 63 64 64 64 64 64 64 64 64 64 64 64 64
40 42 44 46 48 49 50 52 53 54 56 57 58 59 60 61 61 61 61 61 61 61 61 61 61 61 61 61 61 60 60 60 60 61 61 61 62 62
43 45 46 48 49 51 52 53 54 54 55 55 56 57 57 57 57 57 57 57 56 56 56 56 56 56 56 56 56 55 55 55 56 56 56 56 57 58
45 46 47 48 50 51 52 52 52 52 53 53 52 52 52 52 52 52 52 51 51 51 51 51 50 50 50 50 50 49 50 50 50 51 52 52 51 52
46 47 48 48 49 49 50 50 50 51 51 50 50 49 49 48 47 46 46 45 45 45 45 44 44 44 43 42 43 44 44 44 45 45 46 46 46 46
46 46 46 47 48 48 48 48 49 48 48 47 47 46 45 44 43 42 42 42 41 40 39 39 39 39 38 37 37 38 39 38 38 38 39 40 41 41
45 45 46 46 46 46 46 46 46 45 44 44 43 43 42 41 40 39 38 38 37 36 35 35 34 34 33 32 32 32 33 33 32 31 32 33 34 35
44 44 44 44 44 43 43 43 43 42 42 41 41 39 38 37 36 35 34 34 33 32 31 30 30 30 29 28 27 26 27 27 27 27 27 27 28 29
43 42 42 41 41 41 41 41 40 40 39 38 37 36 35 34 33 32 31 30 29 28 27 26 26 25 25 24 23 23 22 23 23 24 24 24 24 25

GEFSNE_500_meanwind_126.txt.gz
Wind_Speed
16 16 16 16 16 16 16 17 17 17 17 18 18 18 18 19 19 19 19 20 20 21 21 21 22 23 23 24 25 25 25 26 26 26 26 26 26 26
18 18 19 19 20 19 19 20 20 20 21 21 22 22 22 22 23 23 24 24 24 24 25 25 25 26 26 27 28 28 28 29 30 30 30 30 30 30
20 21 22 22 22 23 22 22 23 23 24 25 25 26 26 26 26 27 27 28 28 29 29 29 29 30 30 31 32 32 33 33 34 34 35 35 35 35
23 23 24 24 24 24 25 25 25 26 26 27 28 28 29 29 30 31 31 31 32 32 33 33 34 34 35 35 36 36 37 37 38 38 38 38 39 39
24 25 25 26 26 26 27 27 27 28 28 29 30 30 31 32 33 34 35 35 35 36 37 37 38 39 39 39 40 40 40 41 41 42 42 42 42 42
26 26 27 27 28 28 28 28 28 28 29 30 32 33 34 34 35 35 37 38 39 40 41 41 42 43 43 44 44 44 45 45 45 45 45 45 45 45
26 27 28 28 28 28 28 29 30 31 31 32 33 34 35 36 36 37 38 40 41 42 43 44 46 46 47 48 48 48 49 49 49 49 49 49 50 50
27 28 28 29 28 28 29 31 32 33 34 34 35 36 37 38 39 40 40 41 43 44 45 46 48 49 50 51 52 51 52 53 53 53 53 53 53 53
28 28 29 30 30 31 32 34 34 35 36 37 38 39 40 42 42 43 44 46 47 48 49 50 51 53 54 55 56 56 56 57 58 58 58 57 57 57
29 29 30 31 32 33 34 35 35 37 38 39 40 42 43 44 46 47 48 50 51 52 53 55 56 57 58 60 60 60 61 61 62 62 62 62 62 61
30 31 31 33 34 35 36 38 39 40 40 42 43 45 47 48 49 51 52 54 55 56 58 59 60 60 61 63 64 64 65 66 66 66 66 66 66 66
31 32 33 34 35 37 38 39 41 42 44 45 47 48 50 52 53 55 56 57 59 60 61 62 63 64 64 65 66 67 68 69 70 70 69 69 69 69
32 33 35 36 38 39 40 42 43 45 47 49 50 52 54 55 57 58 59 61 62 63 63 64 65 66 66 66 66 67 68 69 69 70 70 70 70 71
34 36 37 38 40 41 42 44 46 48 50 52 54 55 57 58 59 61 62 63 64 64 65 65 65 66 66 66 66 67 67 67 67 67 67 67 67 67
36 37 38 40 42 43 45 47 49 51 53 55 56 57 58 59 59 60 61 62 63 64 65 65 65 65 66 66 65 65 65 64 64 63 61 61 62 63
39 39 40 42 44 46 48 50 51 53 54 55 56 56 57 57 58 59 60 61 62 63 64 64 64 63 62 61 61 60 59 58 57 56 55 55 56 56
40 41 42 44 46 47 49 50 51 52 53 54 55 55 55 56 57 58 58 59 59 59 59 59 59 57 56 55 54 53 51 50 50 50 49 49 49 49
41 42 44 45 47 48 49 51 51 52 53 53 54 54 55 56 57 56 55 55 54 54 53 52 51 50 49 48 47 46 45 44 43 44 43 43 43 44
41 43 44 46 47 48 49 50 51 51 52 53 53 53 54 53 53 52 51 50 50 49 48 47 45 43 41 41 41 41 40 38 38 38 38 37 37 38
42 43 44 46 47 48 49 50 50 50 50 50 50 50 50 49 48 48 47 46 45 44 42 41 39 38 36 36 36 36 37 35 34 33 32 33 32 33
43 44 45 46 46 47 47 47 47 47 47 47 46 46 45 45 44 43 42 41 40 39 37 37 36 35 34 33 32 32 33 32 31 29 28 28 27 27
42 43 43 43 43 43 43 43 43 43 43 43 42 42 41 41 39 38 38 37 36 35 34 34 33 32 31 30 29 29 28 28 27 27 26 25 24 23
40 40 40 40 39 40 40 40 40 40 39 39 39 39 38 37 36 36 35 34 33 33 32 31 30 30 29 28 27 26 26 25 25 25 25 24 23 22

GEFSNE_500_meanwind_132.txt.gz
Wind_Speed
16 16 17 17 17 17 17 17 18 18 18 18 18 18 19 19 20 21 21 22 22 23 23 23 24 24 24 25 25 26 27 27 28 28 29 29 29 30
19 19 19 19 20 20 20 21 21 21 22 22 22 22 23 23 24 24 25 26 26 27 27 27 28 28 29 29 29 30 30 31 31 32 32 32 33 33
21 21 21 22 22 23 23 23 23 24 25 25 25 25 26 26 27 27 28 29 30 30 31 31 32 32 33 33 33 34 34 35 35 35 36 36 36 36
22 22 22 23 23 24 24 25 26 26 26 27 27 27 28 29 30 31 31 32 32 32 33 34 34 35 35 36 37 37 38 38 39 39 39 40 40 40
24 24 24 24 25 26 26 27 27 28 29 29 29 30 31 32 33 33 33 34 35 35 36 37 37 38 38 39 40 41 42 42 43 43 43 43 43 43
25 26 26 26 27 27 28 28 29 30 30 31 32 32 33 34 35 35 35 36 36 37 38 39 40 41 41 42 43 44 44 45 46 46 47 47 47 48
27 27 27 28 28 28 29 29 30 31 32 33 34 35 36 36 37 37 38 38 38 39 40 41 42 43 44 45 45 46 47 48 49 49 50 50 51 51
29 29 28 29 30 30 31 32 32 32 33 35 35 36 37 38 39 39 40 42 43 43 44 45 46 47 48 49 49 51 52 53 54 54 55 55 55 55
29 29 29 30 31 32 33 34 34 34 34 35 37 38 39 39 41 42 44 45 46 47 47 48 49 50 52 53 54 55 56 57 57 58 58 58 59 59
28 29 31 32 32 33 34 35 35 36 36 37 38 39 40 42 43 45 46 48 49 49 50 51 53 54 55 56 57 58 59 59 60 60 60 61 61 61
29 30 31 32 33 34 35 36 37 38 38 38 39 41 43 43 44 46 47 48 50 51 52 53 55 56 57 58 60 60 61 61 62 63 63 64 64 64
30 31 32 33 34 34 35 36 37 38 39 40 42 43 44 45 46 48 49 51 52 54 55 56 57 58 58 59 61 63 63 63 64 64 65 65 66 65
31 32 33 33 34 35 36 37 38 40 42 43 44 45 46 48 49 51 52 54 55 56 57 59 60 61 62 62 62 63 64 64 64 64 64 64 64 64
31 33 34 34 36 37 38 39 40 42 44 45 46 48 49 50 52 53 54 56 57 58 59 60 60 61 61 61 61 62 62 62 62 61 61 60 60 60
33 35 36 37 38 39 40 41 42 44 45 46 47 48 50 51 53 54 56 57 58 58 58 58 58 59 59 59 59 59 58 58 58 56 55 55 55 54
35 36 37 38 39 40 42 42 43 44 45 46 48 49 51 52 53 54 55 55 55 55 55 55 55 55 55 55 54 53 53 53 51 50 49 49 49 49
35 36 38 39 40 41 42 43 44 45 46 46 47 49 50 51 51 51 51 52 52 52 53 52 52 51 51 50 49 48 47 46 45 44 43 43 43 44
36 37 38 39 40 41 42 43 44 45 45 46 47 48 48 49 49 49 49 49 49 49 49 48 47 47 46 46 44 43 42 40 39 39 39 39 39 39
36 37 37 38 39 40 41 42 43 43 44 45 45 46 46 46 46 46 46 46 46 45 45 44 43 42 42 41 40 40 38 37 36 36 36 35 34 34
35 36 36 37 38 39 40 41 42 42 43 43 44 44 44 44 44 44 43 43 43 42 42 41 40 39 38 37 36 36 35 34 34 33 32 32 31 31
34 35 36 37 38 39 39 40 40 41 41 41 41 41 42 42 41 41 40 39 39 38 37 37 36 35 35 34 33 32 32 32 31 30 29 28 28 27
34 34 35 36 36 37 37 38 38 38 39 39 39 39 38 38 37 37 36 36 35 35 34 34 33 33 32 31 30 29 29 29 28 28 27 26 26 25
33 34 34 34 34 35 35 35 36 36 36 36 36 35 35 35 34 34 33 33 32 32 31 31 31 30 29 28 28 27 27 26 26 26 25 25 25 25

GEFSNE_500_meanwind_138.txt.gz
Wind_Speed
16 16 16 16 17 18 18 18 18 19 19 20 19 19 20 20 21 21 21 21 22 22 23 23 24 24 25 25 26 26 26 26 27 27 28 28 29 29
18 18 19 19 20 21 21 21 21 21 22 23 22 22 23 22 23 23 24 25 25 25 26 26 27 27 28 29 29 30 30 30 31 31 31 32 32 32
19 19 20 21 22 22 22 23 23 24 24 25 24 24 25 26 26 26 26 26 27 27 28 29 29 30 31 32 32 33 33 34 34 35 35 35 36 36
20 21 22 22 23 23 24 25 25 25 26 27 27 27 27 28 29 29 29 29 29 30 31 31 32 32 33 34 34 35 35 37 37 38 38 38 39 39
23 24 24 24 24 25 25 26 27 28 28 30 30 30 30 31 31 32 33 33 33 33 33 34 34 35 35 36 36 37 38 39 40 41 42 42 42 42
24 25 26 27 26 27 27 28 29 30 30 31 31 31 32 32 33 34 35 35 36 35 35 36 36 37 38 39 39 41 42 42 43 44 44 45 45 45
25 26 27 29 29 29 29 30 31 32 33 33 33 33 34 35 35 35 36 37 37 37 38 39 39 40 41 42 43 43 44 45 46 46 47 47 48 49
26 27 29 30 31 31 31 32 33 33 34 34 35 35 35 36 37 37 38 39 39 40 40 42 43 44 44 45 45 45 46 47 48 49 50 51 52 53
27 29 30 30 31 32 33 34 34 34 34 34 35 35 37 38 39 39 40 41 41 42 42 43 45 46 47 48 49 49 50 50 51 52 53 54 55 56
29 30 30 30 31 32 33 34 34 34 34 35 36 37 38 39 39 40 41 41 42 43 43 45 46 48 49 51 52 52 53 54 54 55 56 57 58 59
29 30 30 30 30 32 33 34 34 34 34 35 36 37 39 40 41 41 41 43 44 45 46 47 48 49 50 52 53 54 55 56 57 58 59 59 60 60
28 28 30 30 31 33 34 35 35 35 35 36 37 38 39 39 41 42 43 45 46 47 47 49 50 51 51 52 53 55 56 56 57 57 58 59 59 59
28 29 30 30 31 33 34 35 35 36 37 38 39 39 40 41 42 43 45 46 47 48 49 50 51 51 52 52 53 55 56 56 57 57 58 58 58 58
29 30 31 32 32 33 34 35 36 37 38 39 40 40 41 42 44 45 46 47 48 49 49 50 50 51 51 52 52 53 53 54 55 55 55 54 54 54
31 32 33 33 33 35 35 36 37 38 38 39 40 41 43 43 44 45 46 47 48 48 48 49 49 49 50 50 50 50 50 51 51 51 51 51 51 50
33 34 34 34 34 35 36 36 37 38 39 40 41 43 43 43 44 44 45 46 46 46 47 46 46 46 46 46 47 47 48 48 48 48 47 47 46 46
33 34 35 35 35 35 36 38 39 41 41 42 42 42 42 43 43 43 44 44 45 45 45 44 44 44 44 44 44 44 44 44 44 43 42 42 42 42
33 34 35 36 37 37 38 38 39 39 40 41 41 41 42 42 42 43 43 43 43 43 42 42 41 41 41 42 43 42 42 41 40 39 39 38 37 38
34 35 36 36 37 38 38 38 38 39 39 39 40 40 40 40 40 41 41 40 40 40 39 39 39 39 39 39 39 39 38 37 36 35 35 34 34 33
35 36 36 36 36 35 36 37 37 37 38 38 38 38 38 38 38 38 38 37 37 37 37 37 37 37 37 36 36 35 35 34 33 32 32 32 32 31
35 35 34 34 33 34 35 35 35 35 36 36 36 36 36 37 36 36 36 36 35 35 35 36 35 35 35 35 34 33 33 33 32 31 31 31 30 29
33 32 32 32 32 32 32 32 33 34 34 34 34 35 35 35 35 34 34 34 34 34 34 34 34 33 33 33 32 31 31 31 31 31 31 30 29 29
30 30 30 30 30 30 30 31 32 32 32 33 33 33 33 33 33 33 33 33 33 32 32 31 32 31 31 31 31 31 30 29 29 29 29 29 28 28

GEFSNE_500_meanwind_144.txt.gz
Wind_Speed
15 16 16 16 16 17 17 17 17 18 18 18 18 19 19 20 20 20 21 22 22 23 24 24 24 25 25 26 27 27 28 28 29 30 30 30 31 31
17 18 18 17 18 19 19 20 20 20 20 21 21 21 21 21 22 23 24 25 25 25 26 26 27 27 28 29 30 30 31 32 32 33 34 34 34 35
18 19 19 19 19 20 21 21 22 22 22 23 23 23 23 24 25 26 27 27 28 28 29 29 30 30 31 32 32 33 34 35 35 36 36 37 38 38
20 20 20 21 21 22 22 23 23 24 24 24 25 26 26 27 27 28 28 29 30 30 31 31 32 33 34 35 35 35 36 37 38 39 40 40 40 41
21 21 22 23 23 24 25 26 26 26 27 27 27 28 28 28 29 30 31 31 32 32 33 34 34 35 36 36 37 38 39 40 40 41 42 43 44 44
21 22 23 24 24 26 26 27 27 28 28 29 30 30 31 31 31 33 33 34 35 35 35 35 36 37 38 40 40 41 41 42 43 43 44 45 46 46
22 23 24 24 24 25 26 27 28 28 28 29 30 31 32 33 33 34 35 35 35 36 37 38 38 39 40 41 42 43 44 45 46 47 48 49 49 50
23 23 24 25 26 27 28 29 30 30 30 31 31 32 32 34 34 34 35 36 36 37 39 40 40 41 42 43 43 44 46 47 48 49 51 51 52 53
23 25 25 26 28 29 30 30 31 31 32 32 32 32 33 34 35 35 36 36 37 38 40 41 43 43 44 45 46 46 48 49 50 51 52 53 54 55
23 24 26 27 27 28 30 30 31 31 32 33 33 33 35 36 36 37 37 38 39 40 41 42 44 45 46 47 48 48 50 51 52 52 53 54 55 56
24 26 27 27 27 29 30 30 30 31 32 33 33 33 34 35 36 36 37 39 40 41 42 44 45 46 48 49 49 50 51 53 53 54 54 55 55 56
25 26 26 27 28 29 30 30 31 31 31 32 32 33 34 36 36 37 38 40 41 43 44 45 46 48 49 50 51 52 53 54 54 54 54 55 55 55
26 26 27 27 28 29 30 31 32 32 32 32 33 34 35 36 37 39 40 41 42 43 45 46 47 48 49 50 51 53 53 53 52 53 53 53 54 55
27 27 27 28 29 31 32 33 33 33 34 34 35 36 37 38 40 41 41 42 43 44 45 45 46 47 48 49 49 49 49 49 49 49 50 50 51 52
27 27 29 30 31 32 33 33 34 35 35 36 36 37 39 39 40 41 41 42 43 43 44 45 45 46 46 45 45 45 44 45 45 45 46 46 47 47
27 29 30 31 31 32 33 33 33 34 35 37 38 38 39 39 40 41 41 41 42 42 42 42 42 42 42 42 41 41 42 42 42 43 44 45 45 45
27 29 30 31 31 31 32 33 34 35 35 36 37 38 38 38 39 39 40 40 40 40 40 40 40 40 40 40 40 40 40 41 41 42 42 42 42 42
29 30 30 31 32 33 33 34 35 35 36 36 37 37 37 38 38 38 38 38 38 38 38 38 38 38 39 39 38 38 39 39 40 40 40 39 39 39
30 31 32 32 32 33 34 34 35 35 36 36 36 36 36 36 37 37 37 36 36 36 37 37 36 36 37 38 38 38 38 38 38 38 37 37 36 35
31 31 31 32 32 32 33 33 34 34 34 34 34 35 35 35 35 34 34 34 34 34 35 35 34 35 35 35 36 36 36 36 35 34 34 34 34 34
30 31 31 31 31 31 32 32 33 33 32 32 32 32 32 32 32 32 32 32 32 33 33 33 33 33 33 34 34 34 34 34 33 33 32 31 31 31
29 30 30 30 30 30 31 31 31 31 31 31 31 31 31 31 31 31 31 31 31 31 32 32 32 31 31 31 31 31 31 31 32 32 31 30 30 30
28 29 29 30 30 30 30 30 30 29 30 30 30 30 30 30 30 30 30 30 30 30 30 30 30 30 30 30 30 30 30 30 30 29 30 30 30 30

GEFSNE_500_meanwind_150.txt.gz
Wind_Speed
17 17 17 18 19 19 19 19 20 21 21 22 22 22 23 24 23 23 23 23 24 25 25 26 26 27 28 29 29 30 31 31 31 32 33 33 34 34
19 19 19 19 20 20 21 22 22 22 23 24 24 25 25 25 26 26 26 27 28 28 28 29 29 30 30 31 31 32 33 33 34 34 35 36 36 36
20 20 21 22 22 22 23 23 24 24 25 25 26 27 27 28 29 29 29 30 31 31 31 31 32 32 33 34 35 36 36 36 37 38 39 39 39 39
21 21 22 23 23 24 24 24 25 26 27 27 28 29 29 30 31 32 32 32 33 33 34 34 35 36 36 37 38 38 39 39 40 41 42 42 43 43
22 23 23 23 24 25 25 25 26 27 28 29 30 31 31 32 32 33 34 34 35 36 37 38 38 39 40 40 40 40 41 41 41 42 43 44 45 45
22 23 25 25 25 26 26 27 28 29 30 31 32 32 32 33 33 34 35 36 37 38 39 40 40 41 41 40 41 42 43 43 43 44 44 45 46 46
23 23 24 25 26 27 27 28 29 29 31 32 32 33 33 34 35 36 37 38 39 39 40 40 41 41 41 42 42 42 42 43 44 45 45 46 47 48
23 24 25 26 26 27 28 29 29 30 31 32 33 33 34 35 36 37 38 39 39 38 39 39 39 40 40 41 42 43 44 45 46 46 47 48 48 49
24 25 26 27 27 28 28 29 30 30 32 33 34 34 34 35 37 38 38 38 38 39 39 39 40 41 42 43 44 45 45 46 47 48 49 50 51 52
25 26 27 27 28 29 29 30 31 32 33 33 34 35 35 36 36 38 39 39 39 40 40 41 42 42 43 44 45 46 47 47 49 50 51 52 53 53
27 28 28 29 29 30 30 31 32 33 33 33 34 35 36 36 37 38 38 39 40 41 41 42 43 44 45 45 46 47 47 48 49 50 51 52 52 52
29 30 30 30 31 31 31 32 32 33 33 34 35 36 36 37 38 39 39 40 41 42 42 43 44 45 46 46 47 47 48 49 49 50 50 51 51 51
29 29 30 30 30 31 32 32 33 34 35 35 36 36 37 38 38 39 39 39 40 41 42 43 44 44 45 45 46 46 47 48 48 48 48 48 48 48
29 29 29 30 30 31 32 33 34 35 36 36 37 37 38 38 39 39 40 41 41 42 42 43 43 43 44 44 45 45 46 46 46 46 46 46 45 45
29 29 29 30 31 32 33 34 35 36 36 37 37 38 38 39 40 41 41 41 42 42 42 41 41 42 43 43 43 43 44 44 44 44 44 43 42 42
29 30 30 31 32 33 34 35 36 36 36 37 37 38 38 39 40 41 41 41 41 41 41 40 41 41 41 40 41 41 41 41 41 41 41 41 41 41
30 30 31 32 33 34 35 36 35 35 36 37 37 37 38 39 40 40 40 39 39 39 39 39 39 39 39 39 39 39 39 39 39 39 39 40 40 40
31 32 33 34 34 35 35 35 35 35 36 37 37 37 37 37 38 38 38 38 37 37 37 38 38 38 38 37 37 37 37 37 38 38 38 39 38 38
32 33 33 34 34 34 34 34 34 34 35 36 36 36 36 37 37 37 37 36 36 36 36 36 36 35 35 36 36 36 36 36 36 36 36 36 36 36
32 32 33 33 33 33 33 33 34 34 34 35 35 35 35 35 35 35 35 35 35 35 34 34 34 34 34 34 34 34 34 34 33 33 33 34 34 34
31 31 32 32 32 32 32 33 33 33 33 34 34 34 34 34 34 34 34 34 33 33 33 33 33 33 32 32 32 32 32 33 33 32 32 32 32 32
30 30 31 31 32 32 33 33 33 33 32 32 32 33 33 33 33 33 32 32 32 31 31 31 31 31 30 30 30 30 31 31 32 32 32 31 31 30
30 30 31 31 32 32 33 32 32 32 31 31 31 31 32 32 32 31 30 30 30 30 30 30 30 30 30 30 30 30 30 30 30 30 31 31 31 30